GFSFLT2_sfc_thetae_003.txt.gz
Theta_e
313 313 311 310 308 314 309 311 307 310 315 320 324 324 325 325 326 327 335 339 339 340 344 349 351 357 361 366 370 373 366 375
311 313 312 310 314 307 310 303 302 307 310 311 318 320 322 324 324 327 332 339 340 340 342 348 349 354 361 365 369 368 369 372
312 308 307 307 308 311 311 309 303 303 308 319 320 323 322 324 325 327 331 337 340 340 342 345 347 351 355 359 366 367 369 369
308 313 313 311 308 309 307 307 309 309 308 321 322 322 323 324 326 328 332 337 340 341 341 342 347 347 349 353 354 362 368 371
306 310 312 308 309 310 311 312 311 305 308 321 322 322 324 324 325 328 331 335 339 340 342 343 345 348 347 351 350 355 364 364
303 307 309 306 307 309 309 306 308 308 311 317 320 320 322 324 326 328 330 338 339 341 344 346 348 350 351 350 350 352 357 359
310 311 311 308 306 307 306 308 306 310 311 316 320 321 323 324 325 326 328 335 340 342 350 353 351 354 355 353 356 355 361 359
307 310 309 307 309 308 308 308 308 310 310 319 321 324 323 323 324 324 326 329 340 344 347 355 355 358 358 358 359 361 364 363
306 311 310 305 308 309 310 311 309 306 311 316 318 321 324 324 324 325 329 331 336 343 347 352 353 360 359 362 362 364 367 368
306 310 299 310 317 315 312 313 313 313 314 316 320 324 326 325 325 327 331 332 335 341 347 354 353 353 358 359 365 367 368 368
304 305 309 311 316 315 315 314 317 315 315 315 319 320 323 326 326 329 330 333 337 345 348 360 357 362 362 359 362 364 362 367
308 302 301 310 319 322 320 309 318 318 317 315 317 314 318 326 330 334 335 334 341 346 350 354 359 356 359 355 358 360 362 365
305 304 307 318 320 322 307 311 327 327 326 323 315 321 333 336 334 336 336 344 349 349 353 357 359 354 356 355 354 357 359 360
305 303 301 321 319 313 322 327 328 329 329 330 322 330 334 335 337 338 339 343 345 348 351 353 357 356 357 358 362 364 362 360
308 308 322 325 324 326 327 327 329 329 330 331 331 332 335 338 340 341 342 343 344 343 350 352 358 359 359 366 366 363 362 355
314 318 320 322 325 326 326 326 328 332 332 333 333 334 335 335 335 335 338 341 343 345 347 351 357 356 360 361 362 360 353 350
315 319 319 320 322 323 324 327 326 329 330 332 332 332 334 337 339 338 339 341 343 345 347 349 354 356 356 358 359 352 348 347
311 320 318 316 319 320 319 319 321 323 324 328 331 331 335 337 339 340 340 342 344 345 348 350 352 353 354 355 355 352 348 348
315 320 315 315 316 316 315 314 317 318 320 320 323 324 325 327 331 327 339 340 341 343 346 349 351 352 352 355 355 351 348 348

GFSFLT2_sfc_thetae_006.txt.gz
Theta_e
312 313 311 308 305 311 306 308 305 309 313 318 323 325 324 324 328 329 336 338 339 343 345 348 350 353 356 362 365 368 368 368
312 313 313 309 312 303 306 300 300 306 309 312 318 323 326 326 326 328 330 338 340 341 346 348 351 353 358 360 364 368 368 368
312 309 307 307 305 307 308 307 302 302 307 321 323 326 326 326 327 327 329 337 338 341 344 349 352 352 355 357 363 366 368 367
306 313 313 311 308 307 302 304 307 307 308 320 325 326 325 326 327 329 330 334 338 342 342 345 348 350 353 356 360 364 366 367
303 309 312 308 309 309 307 308 306 303 307 320 324 326 328 326 327 331 337 338 338 341 342 343 345 348 351 355 357 363 365 364
302 305 310 308 308 309 307 302 304 306 311 316 321 322 325 328 329 331 339 342 339 340 343 343 345 347 350 352 355 359 361 362
308 309 310 309 308 308 307 308 304 308 309 317 320 323 323 327 330 331 336 339 343 345 347 346 346 347 349 350 352 354 358 361
306 310 309 308 310 309 308 309 309 309 309 318 322 323 326 326 328 328 330 332 341 344 351 353 348 348 348 348 349 353 355 356
304 308 308 304 309 310 310 310 309 306 312 318 317 320 325 329 328 329 330 332 339 346 347 351 352 350 348 348 351 351 355 357
305 308 297 309 314 313 311 312 312 312 315 317 318 321 323 324 325 326 331 331 333 330 348 353 354 351 352 352 354 353 361 359
304 304 307 309 313 313 311 311 316 315 318 317 319 320 320 323 325 327 327 337 334 332 339 354 354 355 357 354 353 361 358 363
306 300 300 311 318 322 319 308 323 324 323 322 321 312 315 325 327 326 326 330 341 342 344 355 357 356 356 357 356 354 361 364
304 302 306 316 319 320 307 311 325 326 326 326 322 326 333 338 342 341 331 336 347 355 353 357 359 358 356 357 358 360 367 367
306 304 301 320 318 312 321 326 325 326 327 327 331 332 332 334 338 341 341 340 348 360 361 362 362 361 361 361 366 368 366 367
305 306 319 325 326 327 327 326 328 331 329 328 328 330 334 336 338 341 341 349 349 355 360 363 365 361 359 363 364 363 363 363
308 314 320 323 325 326 328 329 330 331 332 334 333 333 334 337 340 344 347 349 350 351 352 356 359 361 363 363 364 362 360 356
310 322 322 323 325 326 326 328 327 327 326 327 332 332 336 339 342 344 346 348 352 353 355 357 362 360 362 364 363 356 352 350
311 321 320 320 323 322 321 322 323 323 323 326 327 328 330 334 336 337 339 342 344 351 353 353 357 358 360 361 357 352 348 347
308 316 313 316 316 318 317 317 318 319 321 321 324 329 326 328 329 328 337 344 348 350 352 353 353 353 357 358 354 352 348 348

GFSFLT2_sfc_thetae_009.txt.gz
Theta_e
309 310 307 301 298 302 294 297 295 299 303 310 318 319 322 323 325 327 329 329 331 334 338 341 342 348 349 355 356 357 359 359
309 309 308 304 303 296 299 290 291 298 299 302 308 316 320 321 322 324 327 329 332 334 337 341 343 347 350 354 356 359 358 360
305 303 301 302 300 298 297 298 293 292 298 306 310 317 319 321 323 323 327 330 332 335 338 342 344 347 349 353 357 359 360 360
300 307 309 306 300 299 294 291 295 296 298 312 313 318 322 321 322 322 323 329 333 335 337 341 343 344 348 355 357 359 361 360
297 301 306 303 304 301 301 295 294 293 298 311 312 313 317 317 322 322 322 331 334 334 338 341 343 344 347 352 358 360 361 360
295 297 300 300 303 304 300 296 295 297 298 304 309 314 316 320 320 322 322 328 331 334 338 340 343 344 345 350 356 359 361 360
303 305 305 303 304 304 301 300 296 298 299 303 307 316 317 319 321 322 324 329 329 334 335 339 341 343 345 348 351 357 358 358
300 305 305 303 305 306 304 304 303 303 302 306 309 310 320 319 318 317 325 332 331 333 334 335 338 341 344 346 349 353 355 356
295 302 302 298 303 305 306 306 305 300 304 306 307 309 313 318 320 316 319 328 331 331 338 337 339 341 342 346 349 350 352 355
295 298 292 302 309 309 308 309 308 306 307 309 309 312 315 315 315 315 320 323 328 335 335 343 341 342 343 345 346 348 348 352
293 294 298 305 308 306 305 304 311 315 318 316 315 310 309 315 318 315 320 319 321 327 336 342 344 343 342 342 344 344 345 347
294 292 292 300 313 318 314 303 320 321 319 319 318 307 307 322 326 320 320 319 318 328 326 341 342 344 342 341 342 341 343 347
298 294 300 311 317 318 302 306 319 321 320 319 315 318 322 325 327 329 329 326 321 327 332 341 344 345 342 342 341 345 345 354
299 297 295 318 316 310 315 320 324 325 325 320 320 322 323 326 324 328 335 327 347 338 342 347 346 348 346 343 346 356 359 362
298 301 315 319 315 320 322 324 325 326 330 329 327 330 333 329 330 332 337 343 347 350 351 353 352 352 352 355 358 358 360 357
306 307 313 316 319 327 325 323 323 326 327 325 323 325 325 328 335 338 340 342 346 349 347 349 353 355 356 356 358 358 354 349
307 313 317 319 322 323 323 323 321 322 323 322 322 321 322 322 324 330 339 344 347 348 351 350 353 354 354 356 356 349 347 345
303 310 311 314 316 319 319 318 318 318 320 322 320 318 320 319 321 324 325 332 345 347 349 350 352 351 351 350 348 345 342 342
310 312 312 313 313 316 314 315 317 317 318 317 318 319 320 319 320 321 323 322 337 343 346 346 349 348 349 348 346 343 342 342

GFSFLT2_sfc_thetae_012.txt.gz
Theta_e
305 306 304 299 292 299 290 292 290 294 298 304 309 315 322 323 324 325 325 326 329 333 335 337 338 342 345 348 348 350 351 350
304 305 305 300 301 293 288 287 287 291 294 299 303 307 314 320 322 325 326 326 329 331 335 338 339 343 347 350 349 352 353 353
300 298 299 299 296 291 294 292 290 286 294 302 304 307 311 320 325 326 327 328 328 330 335 338 340 344 347 349 349 351 353 353
298 302 305 304 299 295 294 289 292 295 295 305 307 308 314 318 323 328 329 327 329 330 333 336 339 343 345 350 350 351 354 354
291 296 297 297 301 300 291 291 293 290 292 304 305 306 314 317 319 322 321 323 325 330 332 335 339 341 345 349 351 353 354 354
293 296 297 295 299 300 298 295 294 294 294 298 302 306 309 315 321 321 323 323 325 329 332 336 339 341 345 347 353 354 355 355
296 300 302 301 300 301 297 298 295 298 294 298 300 302 307 311 317 317 322 324 325 329 332 336 339 341 344 348 351 354 354 355
293 300 302 300 302 303 302 301 300 297 296 301 304 305 308 313 317 317 318 324 327 330 333 336 339 340 342 346 352 354 354 354
287 297 300 296 302 302 302 302 302 296 299 302 303 305 306 309 311 315 318 325 328 331 334 336 339 341 341 345 351 353 354 356
288 291 289 298 307 306 302 304 304 303 303 305 306 308 307 312 312 314 316 319 329 332 333 337 340 342 343 344 347 351 352 354
287 288 294 301 304 303 299 299 310 305 309 306 307 306 306 313 311 313 315 318 319 328 333 333 337 341 342 343 345 347 349 352
292 289 288 296 308 313 309 304 317 316 314 314 310 302 305 317 323 315 313 315 318 319 328 339 336 340 340 341 343 344 346 349
293 294 295 309 313 314 300 300 316 317 315 314 313 311 316 320 324 324 324 320 317 314 319 331 341 338 337 339 341 345 347 348
295 294 293 307 312 304 308 320 323 325 323 324 325 327 326 325 323 325 323 325 336 318 319 325 335 339 337 337 342 344 345 345
296 298 304 307 312 322 321 319 321 322 323 324 324 324 326 328 333 336 337 338 343 341 335 342 335 341 337 339 340 340 341 345
301 305 308 317 321 321 319 320 322 322 321 322 320 321 321 322 324 326 327 328 329 334 342 344 345 342 340 340 343 345 350 353
301 306 309 314 318 319 318 320 320 320 321 320 319 318 319 319 320 322 324 324 324 322 321 321 346 351 353 353 355 353 350 349
302 307 308 308 317 319 316 315 316 316 317 318 320 318 318 317 318 321 322 323 320 319 318 321 322 334 353 354 352 348 344 344
308 310 309 313 313 315 313 314 316 315 315 314 317 318 317 315 317 319 324 324 326 326 322 322 329 325 343 347 347 346 344 341

GFSFLT2_sfc_thetae_015.txt.gz
Theta_e
305 303 303 295 293 298 288 287 286 291 296 301 307 309 315 319 321 323 324 327 329 331 332 335 337 339 343 342 342 346 349 349
302 303 302 300 299 291 285 285 285 288 291 294 300 304 310 317 319 321 324 325 328 330 332 334 336 339 342 344 343 344 347 349
297 295 295 294 296 290 291 289 287 287 291 300 303 305 307 313 319 322 323 325 326 329 332 333 336 337 341 344 344 344 345 347
294 298 303 300 297 292 290 287 288 291 292 301 306 307 307 309 315 320 324 326 327 327 330 332 334 336 340 342 344 345 347 348
288 292 295 295 297 297 295 290 293 289 290 300 304 304 305 310 313 316 321 324 326 326 326 331 334 336 339 342 345 346 347 348
286 288 294 293 297 299 296 291 294 295 293 296 300 301 303 307 311 316 320 323 323 323 325 330 334 336 339 342 345 346 348 349
291 294 296 296 296 299 295 297 294 297 293 297 300 302 303 305 307 315 317 320 323 324 327 330 333 337 340 342 346 347 347 348
289 295 297 296 298 300 299 299 298 298 293 300 303 302 301 304 306 309 315 317 319 326 327 329 332 336 339 342 345 348 348 348
283 292 292 291 297 299 300 300 300 296 298 300 300 301 301 303 306 309 311 314 319 322 324 329 333 337 338 342 345 348 348 349
284 287 285 296 302 304 301 301 300 299 301 302 304 306 305 305 305 308 311 315 320 324 326 330 335 338 339 342 345 347 348 349
283 284 291 298 302 301 299 298 304 301 303 303 303 303 303 307 308 310 312 314 320 327 328 331 335 338 339 340 343 346 347 348
286 284 285 294 305 311 307 297 314 309 304 303 303 298 305 312 316 312 311 311 317 325 328 328 333 338 338 338 341 345 348 349
288 286 292 303 313 312 296 297 315 315 313 307 302 304 308 316 319 323 316 318 315 313 323 329 331 335 337 338 339 344 348 351
290 289 288 312 312 306 311 316 321 320 320 321 322 325 327 330 331 331 331 334 340 337 331 324 323 330 335 337 341 342 345 346
295 296 303 309 312 319 318 317 320 320 323 324 323 322 323 324 325 324 323 322 323 323 326 326 340 333 329 334 339 342 342 343
299 303 308 312 315 317 318 317 318 319 319 320 319 320 320 321 321 321 321 321 320 319 317 316 322 330 333 339 335 335 339 341
300 305 309 313 314 316 316 317 317 319 319 318 318 316 315 316 317 319 319 319 319 318 317 317 320 323 323 322 327 334 336 338
296 306 307 309 313 315 314 314 313 316 316 318 317 315 316 316 317 318 320 320 320 320 318 317 321 330 328 326 327 335 342 347
307 309 310 312 313 314 313 314 318 317 316 315 315 317 317 316 317 319 323 325 325 325 327 325 327 331 329 327 327 323 341 346

GFSFLT2_sfc_thetae_021.txt.gz
Theta_e
307 307 307 302 299 305 297 297 296 300 304 308 312 314 318 322 324 329 334 337 339 344 346 348 349 350 351 351 353 356 356 357
306 308 307 304 307 297 298 291 291 297 299 302 309 312 315 318 321 325 328 333 338 341 344 347 348 351 351 352 353 355 356 357
305 302 301 300 300 302 302 299 293 292 297 309 312 317 317 318 321 324 327 329 333 339 343 346 346 348 350 351 352 354 356 357
300 306 308 306 303 303 297 296 298 298 298 309 313 316 318 319 321 324 329 331 333 335 339 342 345 345 347 349 350 353 355 357
298 302 303 303 305 304 304 303 298 295 298 311 312 312 315 316 319 322 326 330 333 333 335 339 342 345 346 347 348 351 354 355
296 298 299 298 300 304 303 299 299 299 302 307 310 311 313 316 320 322 324 329 332 334 338 340 342 344 345 347 349 350 351 353
296 296 297 297 297 299 299 302 300 302 302 306 310 312 315 317 320 320 320 323 327 330 338 341 342 344 345 346 349 351 352 351
292 296 296 295 298 299 299 300 300 301 301 309 311 314 315 316 318 320 321 321 325 330 336 338 341 343 344 346 348 351 352 351
289 294 295 292 297 299 300 302 302 298 304 309 309 311 313 316 319 321 323 325 327 328 334 339 340 344 344 346 350 350 348 353
289 292 285 298 304 305 304 305 305 305 307 309 312 316 318 320 319 321 322 323 327 324 331 341 339 339 346 346 349 350 351 353
286 288 293 296 300 306 306 304 313 313 310 310 312 314 317 319 319 321 323 326 325 325 327 339 341 345 347 347 349 350 350 352
288 284 284 297 304 312 314 300 318 320 321 319 311 306 312 323 320 319 320 322 323 327 330 334 338 339 345 344 347 349 351 353
287 286 291 300 307 318 301 303 320 321 322 323 321 314 322 327 326 334 334 326 326 333 338 340 342 341 345 346 347 350 352 355
287 285 283 301 305 301 314 320 322 323 322 321 326 329 323 333 337 341 341 338 337 341 344 345 344 346 346 348 351 353 355 356
291 290 300 304 307 316 321 320 322 322 323 323 326 329 331 335 336 337 336 337 344 343 341 343 347 350 347 350 351 353 354 357
294 296 299 303 309 314 319 320 322 324 322 324 327 329 332 331 330 329 329 329 330 333 334 336 340 342 343 344 352 353 353 355
295 299 302 303 306 313 318 321 323 321 322 323 326 325 327 326 327 328 329 330 332 335 336 336 338 338 338 339 340 341 347 351
292 301 302 303 311 316 317 320 321 320 323 324 326 323 325 324 326 328 329 334 336 338 338 337 335 336 337 339 339 338 339 339
300 304 305 308 311 314 317 322 321 323 326 325 325 325 324 324 327 324 329 329 329 331 333 337 339 340 341 342 342 340 339 338

GFSFLT2_sfc_thetae_024.txt.gz
Theta_e
310 311 311 306 303 308 302 304 301 305 308 314 317 318 320 322 324 327 337 341 343 345 348 350 352 355 359 361 364 363 360 367
308 311 311 309 310 301 303 296 295 301 304 306 312 315 319 320 323 326 333 339 342 345 346 350 352 354 357 360 363 364 364 364
309 306 305 305 305 306 306 303 298 297 303 314 314 317 318 321 324 326 330 335 339 342 346 348 351 354 355 356 360 360 364 366
304 310 311 309 307 307 301 301 303 303 303 313 315 317 320 321 324 327 330 332 335 338 342 346 348 351 353 355 355 359 362 366
302 307 310 307 308 309 308 308 304 300 304 315 316 316 320 321 323 326 329 332 336 336 338 342 346 350 350 352 353 355 361 359
300 304 307 304 306 308 307 303 303 305 307 311 312 314 317 318 320 322 327 330 332 334 337 340 346 352 355 350 352 353 354 357
306 303 303 306 305 307 306 307 304 307 307 311 314 315 317 319 321 321 323 325 329 334 339 344 346 352 356 353 354 354 358 355
300 302 301 301 304 305 307 308 308 308 308 315 317 317 317 318 319 320 321 322 324 328 336 339 344 347 349 355 353 356 360 359
297 301 301 297 302 304 305 307 307 304 310 315 314 315 316 317 318 319 322 324 326 329 332 337 338 345 347 352 354 357 359 362
296 299 291 303 310 308 306 307 309 310 311 314 315 317 319 320 320 321 322 324 327 327 329 332 336 336 347 350 358 358 361 362
292 293 299 301 303 304 305 306 311 311 313 314 316 317 317 320 322 324 326 327 328 329 330 338 335 339 343 349 352 355 360 361
294 289 290 301 306 312 310 303 313 317 318 320 324 314 315 322 322 324 326 327 328 329 331 332 337 339 343 346 349 352 358 358
291 290 296 304 309 316 300 309 321 322 323 325 324 326 332 336 333 332 332 332 334 333 332 337 342 342 343 347 348 354 356 356
291 289 288 304 304 302 313 320 320 322 325 326 329 332 334 336 337 334 334 337 341 335 336 344 349 349 347 355 355 358 359 357
294 294 303 305 306 310 311 313 319 319 321 325 327 330 335 337 337 337 340 343 345 341 346 349 353 354 353 356 357 357 358 359
295 298 301 304 307 309 311 312 315 320 321 325 325 330 334 338 338 340 340 342 345 346 344 348 355 358 359 359 359 359 359 360
297 300 302 304 306 309 310 315 318 320 323 326 327 327 336 337 337 339 338 340 342 343 343 344 346 346 346 348 350 356 358 358
294 301 301 303 308 311 312 313 317 319 322 328 326 328 330 330 333 336 338 340 341 342 342 342 343 345 348 350 350 347 346 343
301 306 306 308 309 311 311 313 315 320 326 325 327 328 329 330 333 328 335 335 336 337 341 345 340 337 341 349 348 347 346 348

GFSFLT2_sfc_thetae_027.txt.gz
Theta_e
313 313 313 308 305 310 305 306 303 305 309 315 319 320 322 324 326 328 333 337 342 345 348 350 350 355 359 362 367 369 368 370
312 313 313 312 312 303 305 299 299 304 307 307 314 317 321 322 324 327 331 337 341 344 347 351 350 354 359 363 366 368 368 369
312 308 307 308 308 308 308 305 301 301 305 316 317 319 319 322 324 327 329 335 340 344 346 350 352 352 355 360 365 367 367 369
307 312 313 312 309 310 303 304 305 306 308 317 318 319 321 322 325 327 329 334 340 342 345 346 349 352 353 355 357 365 367 369
306 309 311 308 310 311 310 309 306 302 305 318 318 318 322 322 325 328 330 333 336 340 342 344 346 352 352 356 355 357 364 364
304 307 309 306 308 310 310 305 306 307 309 313 316 318 321 323 325 327 330 332 334 335 337 342 347 354 357 354 356 357 358 360
309 311 311 308 307 308 307 309 305 309 310 314 316 318 320 322 324 324 327 329 331 333 338 343 350 357 359 355 359 359 361 361
306 309 307 306 310 309 309 309 310 310 311 318 320 320 320 320 321 321 322 325 328 331 334 340 343 351 356 360 358 359 363 361
301 307 306 301 307 309 310 312 311 307 313 318 317 317 318 320 321 321 322 324 326 328 329 336 340 345 348 358 360 360 362 365
300 304 295 307 313 312 310 312 314 314 316 317 318 320 321 322 322 323 324 325 327 327 329 333 333 334 346 347 362 363 364 363
297 299 303 306 310 309 308 308 314 313 315 316 317 318 319 322 323 324 325 327 328 329 330 338 334 336 339 346 356 362 362 365
298 295 296 306 310 312 313 304 315 315 315 316 318 313 319 333 335 333 329 331 331 330 331 332 337 335 336 338 348 359 362 365
294 294 300 309 313 314 302 311 323 318 319 321 320 326 334 337 337 339 339 339 338 340 339 338 340 338 346 346 347 356 359 364
294 293 292 309 308 305 311 316 318 321 321 321 326 329 331 334 338 340 340 339 336 338 342 342 341 345 353 356 360 366 366 365
296 297 307 309 308 311 312 312 315 317 320 321 321 325 329 332 339 341 341 343 344 344 345 347 354 355 354 367 365 367 368 370
298 301 303 306 309 310 310 311 313 315 317 321 321 326 328 333 340 341 342 343 344 346 347 351 359 359 360 363 362 361 363 367
298 301 303 305 307 308 309 311 312 316 320 320 322 325 330 333 341 342 342 342 346 348 348 349 352 352 353 355 361 360 362 362
295 303 303 305 308 309 308 310 314 316 316 319 322 326 332 333 338 341 341 344 346 347 347 347 349 349 352 354 354 353 357 357
301 305 305 308 309 310 309 312 313 314 315 315 321 329 333 333 336 332 336 338 341 344 343 343 340 343 350 352 352 351 351 351

GFSFLT2_sfc_thetae_030.txt.gz
Theta_e
313 313 312 307 303 309 303 304 300 303 306 313 318 319 322 323 327 328 332 335 341 346 348 347 347 350 353 358 360 363 361 364
311 314 312 310 312 302 304 297 297 301 305 305 313 316 320 323 323 328 332 335 341 345 348 348 348 350 353 357 360 363 364 363
311 308 306 307 307 307 306 304 299 299 303 316 316 319 321 322 325 327 332 335 339 345 348 350 349 350 351 354 360 363 364 364
307 313 313 311 308 309 302 302 305 305 305 317 320 321 322 323 325 328 331 337 339 343 347 350 349 349 351 353 357 362 365 365
303 309 312 308 309 310 309 308 305 301 304 318 319 322 324 324 327 329 333 335 338 342 344 348 350 350 351 353 354 361 364 365
301 306 310 307 307 309 308 304 305 305 308 313 316 317 322 325 328 329 334 336 338 340 344 347 350 352 352 352 355 357 362 363
307 310 311 308 307 308 307 309 305 308 309 314 318 320 323 325 329 330 333 336 340 341 343 347 350 353 355 355 355 357 356 361
305 309 309 307 308 308 308 308 309 310 310 317 322 324 324 325 325 326 328 331 336 341 345 349 355 355 355 356 358 358 357 357
300 307 307 304 309 309 309 311 310 308 314 319 319 321 322 323 323 324 323 325 331 337 342 346 348 360 356 357 359 361 360 361
299 304 295 308 314 313 311 311 313 314 317 321 322 324 324 324 323 324 325 330 336 328 335 342 338 341 352 359 362 360 363 363
297 298 304 308 311 311 309 310 315 315 317 318 319 320 321 323 323 325 330 332 333 330 333 345 340 343 346 347 359 359 358 361
298 295 295 306 312 315 315 305 321 317 315 316 317 310 323 335 336 336 338 341 343 342 342 341 355 345 350 347 354 356 358 359
295 295 302 308 312 315 303 307 320 322 320 319 320 327 331 332 335 338 341 343 345 346 344 355 355 350 356 357 351 357 360 363
295 294 292 308 310 306 313 315 316 318 320 321 322 325 328 329 332 337 341 342 341 345 347 352 357 357 355 361 369 370 369 364
297 298 312 310 309 311 312 312 312 314 315 317 320 322 326 330 333 341 345 346 345 347 353 361 363 367 365 372 375 374 377 371
298 302 304 306 308 310 311 310 312 312 313 319 319 321 323 329 332 339 345 345 343 347 352 360 366 367 370 373 376 374 377 376
298 302 304 305 307 308 309 310 310 312 313 317 317 318 321 327 332 335 342 347 351 352 353 352 355 355 357 360 365 367 370 370
294 303 305 307 308 309 308 308 310 310 312 316 316 318 321 329 334 336 338 343 346 350 349 349 350 350 355 357 361 365 366 363
298 303 305 307 308 309 309 311 311 311 313 313 315 315 318 326 333 331 337 340 342 346 343 345 345 348 351 354 357 359 359 364

GFSFLT2_sfc_thetae_033.txt.gz
Theta_e
312 312 308 302 297 300 291 294 290 294 298 304 308 311 312 318 323 329 333 336 336 337 339 339 342 346 350 353 352 354 355 354
310 313 310 304 304 295 296 287 287 294 296 298 302 306 310 312 317 325 334 333 338 338 339 340 342 346 348 354 353 354 354 355
306 305 304 301 300 300 296 294 288 289 295 306 305 308 310 313 317 323 328 336 338 339 341 341 342 345 347 351 353 354 355 354
298 307 310 306 302 301 296 292 294 293 296 310 310 311 313 314 316 321 327 335 340 341 341 341 341 343 345 348 353 355 356 355
294 299 304 303 304 303 299 297 295 291 295 312 313 312 314 315 315 318 325 334 338 341 341 341 340 342 343 347 351 355 357 356
292 296 300 301 304 304 301 297 297 297 299 306 310 313 315 315 319 319 325 331 336 339 341 342 341 341 343 344 348 355 356 357
301 303 305 305 304 304 301 300 298 299 301 305 309 313 317 319 320 322 323 329 334 337 340 342 342 342 343 345 347 350 355 356
298 304 304 303 305 306 304 304 303 303 301 310 314 317 316 317 318 316 321 327 330 335 339 342 343 343 344 345 346 349 352 355
292 302 304 298 305 305 305 306 305 300 304 312 313 314 314 315 316 315 316 318 322 327 331 338 344 346 346 346 348 348 349 352
293 298 291 302 309 311 307 307 308 307 313 313 315 319 318 316 315 316 318 321 321 320 321 326 336 348 348 349 349 348 348 350
291 293 298 304 307 305 304 306 314 315 315 317 323 326 325 330 331 329 330 331 332 332 333 329 328 333 350 350 351 351 349 351
292 291 292 297 305 312 311 301 313 316 317 315 322 315 318 327 331 333 334 334 333 334 333 337 336 335 337 346 348 348 350 354
291 292 297 303 307 313 300 301 311 311 314 317 317 320 322 327 329 335 336 336 334 334 331 333 336 334 332 337 343 351 351 351
292 291 290 304 304 301 306 307 308 309 310 315 317 321 325 327 330 334 339 338 339 337 337 332 336 333 333 340 345 347 351 351
293 295 301 305 303 306 307 306 306 306 308 314 314 315 319 325 326 329 337 341 344 342 341 353 354 351 345 349 353 351 355 351
294 298 299 302 306 306 307 306 306 306 308 313 311 313 313 315 326 328 331 334 340 344 345 347 348 349 348 350 352 355 351 357
292 298 300 302 305 306 306 308 309 308 308 311 312 311 311 311 325 327 327 330 335 337 342 343 346 345 348 349 350 349 353 358
288 295 296 298 302 305 305 306 308 309 310 310 312 309 310 308 322 326 327 329 330 335 339 341 341 341 342 347 347 347 353 354
293 297 298 299 302 305 306 307 308 309 309 309 310 309 309 308 319 325 328 330 331 335 337 338 338 339 341 344 345 344 345 347

GFSFLT2_sfc_thetae_036.txt.gz
Theta_e
308 311 310 301 300 299 289 289 287 292 294 300 305 305 315 324 328 330 331 332 333 336 337 338 341 343 344 343 345 349 349 350
304 309 310 306 302 293 288 284 283 289 291 296 300 302 304 320 325 330 332 332 332 335 337 338 341 344 346 347 345 349 350 350
299 302 301 300 299 294 295 289 287 285 293 299 301 302 304 317 325 329 331 332 330 335 338 338 340 344 348 348 347 349 352 352
294 300 305 307 298 297 293 288 288 289 294 305 306 306 307 307 326 329 330 332 333 336 337 337 339 342 346 350 349 350 353 353
289 293 298 297 303 299 293 292 290 291 294 304 305 307 310 310 313 325 328 331 335 336 336 337 338 341 344 349 351 351 352 351
284 290 295 294 299 300 299 293 293 294 296 302 304 307 306 309 312 318 329 333 334 335 336 337 338 339 343 345 352 352 352 351
290 294 297 297 300 302 297 298 295 297 297 300 304 309 308 310 312 320 329 332 334 335 336 338 338 339 342 345 348 352 352 351
287 299 301 299 303 303 301 301 298 297 298 302 308 312 312 314 318 321 329 333 336 337 338 338 338 339 341 343 346 351 351 351
284 296 301 296 300 302 302 302 302 296 300 308 311 317 318 310 314 317 326 334 336 337 338 340 340 340 340 342 345 349 351 352
285 292 289 297 303 305 306 306 306 310 310 316 322 324 325 327 319 322 324 323 321 330 335 339 341 341 341 343 343 344 346 351
285 289 295 297 299 300 299 301 305 306 317 322 323 324 322 326 330 327 326 327 328 330 326 327 342 344 343 342 343 343 344 345
285 287 288 294 301 309 308 295 305 309 316 318 315 313 315 325 334 336 331 328 328 327 330 331 329 337 344 343 343 342 344 346
289 291 293 299 302 308 294 297 306 307 309 312 315 317 320 326 328 336 338 336 336 338 334 328 329 332 335 339 344 347 348 347
291 288 288 303 302 294 299 304 304 307 309 308 308 311 318 325 326 328 333 338 343 347 346 348 343 337 341 341 344 344 346 348
290 292 300 305 302 304 304 303 305 305 307 308 308 307 309 321 323 324 327 331 336 341 342 345 345 345 342 344 348 348 346 345
290 295 296 302 304 303 303 304 307 307 304 308 306 307 306 309 322 323 325 327 332 334 340 339 342 343 343 344 346 346 346 348
288 291 296 300 300 301 301 304 307 308 308 308 306 305 305 305 310 323 325 327 329 331 334 337 338 338 339 342 343 343 344 350
286 292 290 293 299 300 300 301 307 306 306 307 307 305 310 310 311 322 324 326 329 330 334 335 336 337 338 340 342 341 341 348
293 297 296 296 298 300 299 302 307 306 306 306 308 308 311 313 318 320 323 323 324 327 332 333 333 334 337 340 339 337 338 334

GFSFLT2_sfc_thetae_039.txt.gz
Theta_e
304 305 307 301 299 300 290 285 288 295 292 299 304 314 321 324 326 325 325 328 333 335 335 336 337 339 340 341 342 342 343 345
300 305 306 305 304 294 289 285 285 288 290 295 299 303 310 321 323 325 326 328 332 335 336 337 338 340 341 342 342 344 345 345
296 296 297 299 299 299 298 289 289 283 292 297 300 302 304 316 322 323 326 329 332 334 336 337 338 341 340 341 341 344 346 346
291 297 299 303 298 294 297 290 286 287 293 301 302 303 306 311 319 325 329 331 333 333 334 336 337 340 341 341 341 343 347 346
287 291 297 294 302 297 296 291 289 293 295 301 301 303 303 305 315 321 328 331 333 333 333 335 337 338 342 343 343 343 346 347
281 285 290 289 294 299 295 289 291 294 298 301 302 301 303 305 310 319 326 330 332 332 331 335 337 337 340 344 346 345 346 347
286 288 288 289 290 294 293 296 294 294 293 299 301 301 307 310 308 309 322 329 331 331 331 334 336 337 340 345 347 347 347 348
283 290 289 289 296 299 299 297 295 295 296 299 305 315 319 311 308 314 323 327 329 332 333 334 335 336 339 343 348 349 348 347
279 291 295 292 295 299 300 300 298 294 298 306 314 319 321 323 312 313 321 326 328 332 334 335 336 337 338 342 346 349 348 348
279 288 289 294 300 301 302 301 303 305 309 315 320 322 325 326 327 320 321 327 331 334 335 336 338 338 338 342 343 347 348 348
279 286 294 296 298 297 295 297 303 304 311 320 324 325 324 326 332 327 322 323 328 335 336 337 338 339 338 340 341 344 346 348
281 288 286 294 300 302 304 292 302 306 305 316 321 315 319 323 328 334 338 333 326 329 333 336 337 338 338 338 339 339 344 347
284 290 292 298 301 303 289 292 302 305 306 305 309 316 322 322 323 330 336 343 343 335 328 326 332 340 338 339 338 341 342 343
291 289 287 301 300 292 295 302 303 305 307 306 307 309 316 321 321 325 329 334 341 341 341 343 342 339 337 342 345 342 341 341
289 290 299 304 302 301 301 299 301 305 306 308 307 309 310 313 320 324 327 330 336 339 339 341 342 341 340 340 345 343 343 343
289 292 294 300 302 300 300 300 301 305 307 307 306 309 312 313 320 322 326 328 332 335 335 334 336 338 339 340 342 343 343 344
289 292 296 299 298 299 300 301 302 302 306 307 310 313 316 316 318 319 320 324 328 330 333 333 334 335 337 340 341 340 341 344
287 293 293 294 298 300 299 300 301 301 305 307 309 310 314 314 315 317 317 319 323 325 328 331 332 333 335 337 338 337 337 337
294 298 298 299 299 301 300 301 303 303 306 306 308 309 313 309 309 313 313 317 321 325 326 330 330 330 335 335 334 332 333 334

GFSFLT2_sfc_thetae_042.txt.gz
Theta_e
298 300 301 297 295 298 289 285 286 294 294 301 306 310 320 324 327 329 331 333 334 336 337 337 338 339 339 339 339 340 340 341
296 300 301 301 302 293 290 286 281 288 289 298 298 303 310 317 322 326 330 330 332 335 336 338 339 340 340 340 339 340 341 342
293 293 294 296 298 298 296 291 289 283 288 300 301 306 306 312 322 325 327 328 328 332 337 337 339 340 340 340 340 341 342 342
287 296 298 295 295 297 295 290 287 288 294 301 303 304 306 308 320 325 328 328 328 330 335 336 336 338 339 340 340 342 343 343
283 290 292 292 297 297 293 297 294 293 293 303 302 302 303 305 308 320 326 328 328 329 332 335 335 337 338 340 340 343 344 344
279 284 287 285 289 296 293 294 295 297 298 302 304 302 304 304 305 311 322 325 327 329 332 335 336 337 339 340 341 342 344 345
287 287 288 287 287 290 289 292 294 295 297 301 303 303 302 305 307 308 314 324 328 330 332 334 336 337 340 341 342 342 343 345
283 287 287 286 290 291 292 294 294 295 294 304 302 312 320 321 321 313 311 314 326 331 333 333 335 336 339 341 342 343 342 344
277 287 288 285 291 296 299 300 298 293 299 308 310 320 320 323 325 326 318 312 317 330 332 333 335 337 338 342 345 344 344 345
280 283 284 293 300 302 299 298 301 302 304 314 316 323 324 324 325 327 328 321 322 331 333 333 336 338 339 343 346 346 345 346
278 281 293 295 297 296 295 296 300 301 304 309 319 322 323 323 325 329 335 324 327 331 333 335 336 338 339 342 346 347 346 347
283 281 287 292 298 302 301 292 301 301 304 304 317 312 317 321 325 330 337 336 329 332 334 334 336 338 339 340 343 345 347 348
283 284 291 296 300 301 292 291 300 303 304 304 305 309 313 323 326 331 336 339 335 334 334 335 337 338 338 340 340 344 348 350
288 290 288 301 298 292 295 299 299 301 304 305 310 316 316 321 324 327 331 336 340 339 339 338 338 338 338 338 342 343 345 348
287 289 295 302 297 299 300 299 299 299 304 309 311 315 316 317 319 322 325 329 336 335 337 340 342 344 343 344 350 344 342 343
290 292 294 299 300 299 300 300 301 302 303 307 311 313 314 313 315 317 320 324 329 334 333 334 338 340 342 344 348 346 344 344
289 293 296 299 298 299 300 302 303 303 303 305 308 310 311 309 310 313 316 320 327 328 331 331 335 337 340 341 344 344 347 351
288 294 294 295 299 301 300 300 302 302 302 304 307 308 311 309 309 310 312 317 324 329 330 331 333 336 338 339 339 340 342 343
294 299 299 301 302 304 301 302 303 303 304 303 307 308 311 309 310 311 314 315 318 325 330 332 332 332 335 334 335 336 338 338

GFSFLT2_sfc_thetae_045.txt.gz
Theta_e
299 301 301 301 298 304 297 298 295 297 302 310 314 316 319 325 332 334 337 338 339 340 342 344 345 347 348 349 350 350 350 353
297 299 303 301 305 297 298 290 289 296 298 299 309 312 317 319 327 333 337 339 340 341 342 345 345 347 349 350 350 351 351 352
292 294 297 300 298 302 302 299 293 291 297 309 309 316 316 318 323 329 335 338 340 343 344 345 345 346 348 348 350 350 351 352
286 293 297 296 295 300 297 296 300 298 298 310 313 315 318 319 321 325 333 337 340 342 343 344 346 347 347 348 347 349 351 352
283 290 296 293 297 298 302 303 300 295 298 312 313 314 316 319 322 327 332 335 338 339 341 345 346 347 347 348 346 347 351 349
281 285 292 290 294 295 297 297 299 301 302 308 312 312 314 315 316 318 327 334 336 337 340 344 346 347 348 348 348 348 348 349
288 289 289 289 289 291 291 297 299 303 305 309 313 315 317 318 318 317 318 326 335 337 339 343 346 347 349 349 350 350 351 350
285 288 289 288 291 292 293 295 299 302 305 314 316 317 315 318 325 326 328 325 329 337 340 341 344 346 347 348 349 352 352 351
281 287 288 286 291 293 295 300 300 299 307 313 315 323 324 326 328 329 331 335 335 329 340 342 344 347 346 348 351 351 352 354
282 284 279 294 304 299 302 302 305 308 310 314 320 328 328 326 325 328 332 334 338 336 333 344 343 344 348 349 350 351 352 353
280 282 287 297 300 301 303 298 304 305 310 316 324 330 329 325 323 327 331 334 341 342 329 344 345 348 349 350 351 351 351 353
283 280 282 294 300 304 305 297 301 305 307 315 323 319 320 319 321 330 336 343 341 337 333 343 346 347 348 349 350 350 352 354
282 281 284 297 302 304 296 295 300 302 305 315 313 315 317 321 322 328 333 341 342 341 343 345 348 348 348 350 351 353 354 356
284 281 280 297 301 296 299 301 302 303 304 313 312 311 313 314 316 322 330 336 344 342 344 347 349 349 349 351 357 359 360 359
286 286 291 298 299 303 303 301 301 301 303 309 309 309 310 309 311 315 324 335 340 344 345 348 348 351 349 351 357 358 359 360
288 292 294 298 301 303 302 301 303 304 304 306 307 309 309 310 310 311 316 328 337 341 342 344 350 352 353 356 354 355 357 358
290 293 295 298 300 302 303 303 303 304 305 304 306 308 310 311 311 313 314 317 331 336 339 340 346 346 348 351 357 353 353 354
287 294 295 296 302 304 302 301 302 302 303 305 305 307 310 311 314 315 315 316 320 329 337 338 340 341 343 343 348 353 357 354
294 297 298 299 301 303 302 303 302 303 303 303 306 309 310 311 314 315 318 318 317 319 325 336 337 336 338 342 344 346 346 343

GFSFLT2_sfc_thetae_048.txt.gz
Theta_e
302 305 306 305 302 307 302 304 300 302 304 309 316 319 322 324 330 333 338 341 343 346 346 346 347 351 353 356 357 356 354 361
298 301 305 305 309 301 301 294 294 300 302 302 309 315 319 322 325 331 338 341 343 345 347 347 348 350 351 352 355 356 355 356
295 295 298 301 301 303 305 302 297 296 301 312 311 314 318 321 325 328 336 340 343 345 347 348 349 349 350 351 353 354 356 358
292 297 299 298 300 303 298 299 302 302 303 314 314 316 317 320 325 329 334 339 342 344 346 347 348 348 349 350 351 353 358 361
289 293 297 294 298 301 303 304 300 299 302 315 316 316 319 318 321 328 331 336 341 342 344 346 348 349 348 350 350 352 355 354
286 290 293 292 295 299 301 297 299 301 303 312 314 315 318 320 323 324 327 333 336 340 343 347 349 355 354 350 351 351 352 352
292 292 292 291 291 294 295 298 296 301 304 309 315 316 319 321 321 322 323 328 335 338 343 350 352 357 356 352 355 354 357 352
289 292 292 289 291 292 294 296 298 300 302 311 318 320 319 320 322 323 327 327 328 336 340 344 348 354 357 358 355 356 360 357
285 290 289 286 290 292 294 298 299 297 305 313 316 319 321 323 324 328 331 334 337 336 337 342 345 352 354 358 358 358 361 361
286 288 280 290 296 297 295 297 302 303 307 311 318 323 332 333 332 333 335 337 339 341 343 339 343 346 352 354 360 360 361 362
284 284 288 291 295 298 295 296 302 306 309 311 318 324 331 333 332 334 337 340 342 344 345 348 342 346 351 351 355 358 360 362
287 280 279 291 292 295 303 294 310 312 314 314 318 316 322 329 331 332 337 340 343 348 350 349 350 344 347 349 352 356 359 362
284 283 286 293 294 296 289 299 309 309 311 320 319 319 320 321 323 327 332 338 346 349 349 349 348 344 352 353 353 357 357 358
285 282 279 295 292 290 302 304 303 304 310 311 311 311 312 314 313 318 325 340 348 345 344 344 344 351 356 356 359 362 363 362
286 288 295 293 293 302 303 302 302 304 309 309 308 308 310 310 311 313 317 330 345 348 346 348 351 353 353 362 362 363 362 365
286 291 290 296 299 303 304 302 304 306 306 308 309 310 310 311 312 313 315 317 334 343 347 350 353 354 355 359 365 363 361 363
288 289 293 298 298 302 303 304 304 305 306 305 309 311 311 312 314 315 316 317 320 331 340 342 346 349 355 359 360 359 360 360
287 292 293 293 300 303 302 301 303 304 305 309 309 309 312 313 316 316 316 318 319 321 330 337 340 344 348 354 359 356 355 355
292 297 299 301 301 303 302 303 304 305 307 305 307 310 312 315 317 317 316 318 318 320 325 332 334 335 341 351 354 357 352 361

GFSFLT2_sfc_thetae_051.txt.gz
Theta_e
306 308 309 307 304 309 303 306 302 305 307 311 317 320 325 327 332 333 338 341 342 343 345 348 350 353 354 359 362 363 356 362
303 306 307 306 311 303 303 296 296 303 306 304 309 314 319 324 327 332 337 340 342 344 345 347 348 351 355 357 361 362 360 362
300 298 299 300 300 304 306 303 297 298 304 315 313 314 316 320 326 330 334 339 342 344 347 348 349 350 351 354 358 359 361 362
296 302 303 302 301 302 298 300 304 303 304 317 317 317 317 320 325 328 332 337 342 344 347 348 349 349 351 351 351 356 359 363
293 298 300 297 300 303 304 304 302 300 302 317 318 317 319 319 321 327 330 334 341 343 345 347 349 351 350 351 351 352 358 359
290 294 296 296 296 299 301 298 300 302 306 312 316 316 318 321 322 324 329 334 337 341 343 346 352 355 355 351 351 351 353 354
295 295 295 294 295 297 297 299 297 302 304 311 315 317 319 322 323 324 325 330 334 339 346 353 354 358 359 354 356 354 356 355
292 295 295 292 295 295 295 296 299 302 303 312 314 316 318 320 323 323 325 328 331 336 341 347 354 358 360 358 358 357 358 356
288 294 293 289 293 294 296 297 296 294 302 308 309 312 315 320 323 323 325 328 331 331 337 341 346 356 357 360 360 360 361 360
289 291 282 294 299 298 296 297 299 300 301 305 308 312 315 324 333 334 335 333 337 338 339 340 343 346 354 357 363 362 361 364
286 287 290 293 295 295 294 293 301 302 304 304 307 310 312 320 336 337 339 340 342 344 344 347 343 345 354 354 363 362 363 364
290 284 281 293 297 301 299 291 302 304 305 305 306 302 310 331 337 337 340 341 343 346 347 348 349 347 345 351 356 361 364 364
289 285 290 297 298 299 286 292 304 308 309 306 306 311 318 328 331 333 338 341 345 348 347 350 353 350 351 351 354 361 364 367
288 285 282 299 298 290 298 298 296 306 311 312 319 323 321 321 323 327 330 334 341 351 352 354 355 357 357 354 359 366 366 366
291 291 299 299 297 299 297 297 298 309 317 321 319 318 317 316 320 322 322 329 334 348 353 350 356 359 359 357 368 366 367 367
287 293 295 296 296 298 299 300 305 306 310 314 313 313 313 314 314 317 319 320 325 337 353 354 358 357 359 372 369 369 367 366
288 291 291 295 298 298 301 305 305 306 308 309 312 313 313 314 314 314 316 318 320 326 334 339 347 353 358 364 367 363 366 366
286 291 293 293 297 302 302 302 305 307 306 307 310 312 315 314 315 315 315 317 317 321 325 326 330 332 336 342 365 362 361 359
291 296 295 297 297 301 303 304 305 305 306 308 312 314 315 315 315 315 315 317 318 319 322 324 325 328 334 337 349 360 358 364

GFSFLT2_sfc_thetae_054.txt.gz
Theta_e
306 309 308 305 303 307 301 303 299 303 306 310 314 317 326 327 331 329 334 338 340 343 344 345 346 347 350 353 354 356 354 358
305 308 308 305 308 301 302 294 294 300 304 304 310 314 321 325 325 328 334 334 338 343 344 347 347 350 351 354 354 357 356 357
303 301 300 301 300 303 304 302 297 296 301 315 317 315 318 325 327 327 329 335 336 337 346 348 349 351 350 353 355 357 358 356
296 303 305 302 300 300 295 298 302 301 301 315 318 318 318 318 322 333 336 336 335 331 335 346 348 349 350 351 355 357 359 357
292 298 301 298 299 300 300 300 298 298 301 315 317 319 320 319 321 328 336 328 329 334 338 346 347 349 351 351 351 357 359 357
290 294 297 296 298 299 297 296 297 298 303 311 312 315 318 321 324 325 329 331 333 339 342 348 348 350 350 351 353 353 356 357
295 296 296 296 296 297 296 297 296 300 302 309 309 312 316 321 323 325 327 328 332 335 340 349 350 351 352 353 352 353 354 354
292 295 296 294 296 296 297 298 298 299 300 308 311 314 315 318 320 319 321 328 332 330 349 347 352 352 353 353 353 354 353 353
287 293 293 290 295 296 296 299 298 294 301 306 306 308 311 313 313 315 320 321 333 337 339 344 350 355 353 354 355 354 354 355
288 291 282 294 301 300 297 298 300 300 301 304 305 307 309 311 312 315 320 322 342 334 341 346 343 348 357 357 356 356 355 357
286 286 290 293 297 297 296 295 300 300 302 303 305 306 306 311 313 315 319 325 341 342 344 349 349 350 356 358 356 356 356 357
290 284 281 292 298 300 300 290 301 301 300 301 303 298 304 311 311 318 337 340 340 342 344 345 349 350 350 353 358 354 355 357
288 287 289 297 299 301 287 290 302 304 304 303 301 307 313 316 314 331 334 337 341 343 345 349 351 352 350 351 352 360 358 361
289 286 283 301 300 293 299 302 302 302 302 303 304 308 313 316 323 329 331 333 337 340 343 353 356 352 350 352 357 361 363 360
288 290 298 300 299 302 302 300 301 301 302 304 304 308 309 321 325 326 324 327 331 337 345 359 357 360 352 356 360 367 365 361
288 294 295 297 297 298 299 299 299 301 302 304 305 308 317 318 317 318 320 320 323 330 336 336 340 347 361 360 363 363 362 363
288 291 292 295 296 297 298 300 300 303 306 306 308 314 314 313 313 316 317 319 321 324 326 326 332 340 346 349 362 358 363 362
286 292 290 291 296 296 296 300 303 305 306 308 310 313 313 312 314 315 317 319 318 318 319 320 324 331 338 343 347 365 361 361
292 297 296 295 297 297 298 301 304 305 305 304 308 313 315 314 315 316 317 317 316 316 317 318 319 324 328 334 342 353 362 361

GFSFLT2_sfc_thetae_057.txt.gz
Theta_e
303 306 305 298 294 298 291 295 289 294 298 304 307 314 324 325 329 328 331 335 334 338 337 338 339 340 342 343 344 349 348 344
301 303 305 300 301 292 292 285 285 292 294 296 302 305 321 324 324 330 334 336 337 338 339 339 340 341 343 345 344 348 349 348
296 294 294 295 293 294 293 292 287 287 292 303 306 310 320 323 325 331 330 334 336 337 340 338 341 341 342 346 346 346 347 350
289 297 299 297 292 291 287 288 292 292 295 309 310 313 319 324 326 331 333 334 337 336 338 336 338 341 342 345 347 349 349 348
285 289 294 293 294 290 290 288 287 286 293 307 309 310 314 315 319 329 331 333 326 332 336 336 335 339 343 344 348 350 351 349
282 286 292 290 293 295 289 283 285 289 293 298 305 306 309 314 314 319 331 331 329 329 332 333 335 337 342 344 348 350 351 351
290 292 293 292 292 293 291 290 285 290 293 298 302 304 308 310 311 312 315 328 329 328 329 338 336 339 342 345 346 350 351 351
288 292 292 290 293 294 294 294 293 293 293 297 300 302 302 302 304 305 307 313 316 321 324 337 336 334 334 342 346 347 350 351
283 290 290 286 291 293 294 296 293 289 293 298 298 300 300 301 304 305 306 309 316 319 333 334 332 333 333 333 348 347 347 351
283 286 277 290 297 297 295 296 297 297 297 299 299 301 302 303 304 307 310 313 328 326 340 342 342 337 336 337 339 347 346 348
279 281 286 290 293 293 291 291 298 296 298 300 303 302 300 308 309 310 311 314 326 321 333 341 338 335 336 336 335 334 346 347
286 279 277 287 295 298 296 285 297 299 299 299 299 293 297 305 306 309 311 313 323 324 332 336 341 336 333 334 332 337 340 349
286 285 288 293 296 301 287 286 298 299 298 298 295 296 301 305 306 309 311 313 327 331 332 337 342 344 341 339 334 346 348 351
286 284 280 295 295 289 293 295 296 297 298 298 298 300 301 304 306 309 310 316 328 328 329 335 343 343 343 343 346 350 351 351
285 286 294 296 294 296 296 294 294 296 298 299 298 299 300 302 306 309 318 321 324 323 325 332 336 337 340 342 348 349 353 351
286 292 292 294 295 297 296 296 296 296 298 299 297 300 300 303 306 315 317 317 320 320 326 327 326 329 336 341 344 348 351 354
288 291 293 294 294 295 295 295 297 299 298 298 299 301 303 306 311 314 316 318 318 319 319 319 321 324 329 331 336 340 350 355
285 293 292 292 295 296 294 295 297 297 301 303 305 305 305 307 314 315 315 316 316 316 317 318 318 319 321 323 328 335 343 352
293 297 297 297 297 298 296 296 297 298 300 302 303 303 303 311 315 315 316 316 315 314 314 315 314 315 317 319 324 329 339 350

GFSFLT2_sfc_thetae_060.txt.gz
Theta_e
300 298 300 296 292 294 288 287 287 290 295 301 309 308 323 323 323 324 328 332 335 335 334 335 337 337 340 343 342 342 342 342
298 298 300 298 299 291 288 283 282 288 290 293 301 308 317 321 322 324 332 333 336 335 335 336 338 338 340 342 343 344 343 342
292 289 288 290 289 291 290 289 284 284 289 300 305 309 310 321 324 327 331 333 335 336 337 338 339 339 339 340 341 345 346 344
287 293 295 292 289 287 285 284 287 289 290 304 308 309 309 311 324 329 332 334 336 337 338 337 337 338 339 340 341 342 346 346
284 287 292 290 291 288 286 283 282 283 286 303 307 308 308 308 322 329 332 333 334 331 328 330 335 338 339 341 342 342 344 346
279 283 288 287 291 292 285 280 282 283 286 294 298 300 302 306 312 329 330 331 330 329 329 331 332 333 336 340 344 344 343 344
285 289 290 290 290 291 287 286 283 286 287 290 294 297 299 302 306 319 327 330 321 322 321 324 331 333 336 339 343 346 345 345
285 291 291 289 291 292 291 292 291 291 288 293 295 299 299 303 304 306 309 314 316 321 328 332 331 325 336 338 341 347 346 346
279 288 288 283 288 290 291 292 291 287 291 294 295 298 299 303 307 308 309 311 312 319 333 336 335 335 332 334 338 340 347 348
280 284 275 286 293 294 292 294 294 294 296 298 298 300 303 304 303 304 307 308 309 311 323 334 336 338 336 337 337 336 337 347
281 277 284 289 291 291 290 289 297 295 297 298 299 299 298 303 304 305 306 307 309 312 320 334 333 336 338 338 338 336 335 335
284 278 276 286 292 296 296 283 294 295 294 294 296 289 293 300 303 305 307 307 308 312 324 332 340 337 333 336 338 333 335 335
284 282 286 290 294 297 282 284 293 294 293 293 291 294 297 300 301 304 306 307 310 314 328 332 335 334 331 332 331 334 337 336
282 282 279 294 293 287 290 293 294 293 293 293 294 296 298 299 299 301 304 306 318 319 323 329 335 337 340 337 339 335 334 334
285 282 291 292 291 294 295 293 293 293 293 295 295 295 297 297 298 301 304 307 318 320 319 326 332 331 330 336 343 344 344 345
286 288 289 293 296 296 296 294 294 294 296 297 296 298 297 297 298 301 304 307 316 317 320 322 322 325 325 331 333 333 336 340
288 290 292 293 295 296 296 297 295 296 297 297 300 298 297 298 299 303 305 310 315 317 315 317 318 320 320 323 324 326 328 334
283 289 290 291 295 298 296 295 296 295 296 298 299 301 303 302 302 303 306 312 314 313 316 316 315 315 316 316 318 320 324 330
290 294 294 296 297 299 296 296 297 296 297 296 298 300 301 301 303 309 309 315 313 310 310 312 311 312 313 313 314 315 319 325

GFSFLT2_sfc_thetae_063.txt.gz
Theta_e
298 296 295 293 290 292 286 284 286 288 292 299 309 309 312 323 327 328 331 332 333 332 333 335 335 335 340 340 340 341 341 341
295 296 295 292 296 289 286 282 281 286 288 293 301 303 307 319 324 328 331 332 331 333 332 334 336 337 340 341 340 341 341 342
290 288 287 288 286 285 287 286 283 283 288 300 301 302 303 311 322 327 325 327 331 333 334 334 336 337 338 340 340 340 341 341
285 291 295 292 286 283 282 283 284 286 288 298 301 302 303 320 320 323 328 329 335 336 335 334 335 336 336 339 340 341 341 341
280 285 290 288 289 286 283 280 280 281 285 297 297 298 301 316 325 329 330 329 328 329 330 332 333 334 336 338 339 341 342 341
278 281 286 285 289 289 284 281 281 282 285 290 293 295 298 301 311 323 328 321 323 325 328 331 331 332 334 337 339 340 342 343
284 287 289 288 289 290 285 285 282 285 286 290 292 293 296 303 307 310 314 311 314 321 324 331 332 329 331 335 339 341 340 341
284 289 289 287 290 290 290 290 289 289 287 292 295 297 301 302 304 303 305 308 312 312 314 321 332 335 331 331 337 342 340 339
278 286 286 282 287 289 289 291 289 286 289 296 295 297 298 298 300 301 302 303 305 310 314 314 327 335 334 334 336 341 342 342
278 281 273 284 292 293 291 294 294 294 295 296 296 297 299 299 299 300 302 302 304 305 310 312 321 330 336 337 334 336 342 343
277 274 282 287 289 288 287 288 293 292 293 294 296 297 297 300 300 300 302 303 304 307 307 311 323 336 336 335 337 336 336 340
281 276 275 285 291 294 293 284 292 292 291 292 293 288 293 298 299 300 302 303 305 306 310 317 325 332 334 333 336 337 336 335
283 283 284 290 292 295 282 283 291 293 291 291 289 294 295 297 298 300 301 303 305 306 311 319 324 329 331 333 332 336 337 335
281 279 274 292 291 284 287 291 293 293 293 292 293 294 296 297 297 299 300 301 303 304 307 317 323 325 328 330 335 342 342 334
281 280 288 291 290 295 296 293 293 293 294 294 293 294 297 298 298 299 299 300 302 304 306 315 322 327 326 326 329 333 332 334
283 285 288 290 292 294 297 295 296 296 296 295 293 295 297 300 299 299 300 300 302 304 306 312 321 326 325 324 326 325 326 330
287 288 289 292 293 294 295 298 296 297 297 296 296 296 297 300 302 302 304 304 304 305 306 312 320 321 322 322 319 318 321 325
282 287 287 288 293 296 296 297 297 296 295 297 297 296 298 298 301 301 303 303 304 304 306 312 317 318 318 316 315 314 317 322
288 290 291 293 295 297 296 297 298 297 297 295 297 296 297 297 300 301 302 302 303 305 308 314 311 311 312 312 311 311 312 316

GFSFLT2_sfc_thetae_066.txt.gz
Theta_e
296 295 294 291 288 291 285 283 284 287 293 300 305 304 305 308 323 328 330 332 333 334 333 334 334 335 338 339 339 340 341 341
294 295 293 291 292 287 285 282 281 285 290 292 297 299 302 306 315 324 328 328 331 334 332 334 335 336 339 340 340 341 342 342
289 287 285 288 286 284 286 284 283 282 288 296 297 299 298 318 325 319 329 331 333 334 333 335 336 335 338 340 340 340 342 342
283 290 292 290 286 283 284 283 282 285 287 295 294 296 301 313 326 326 327 330 334 335 335 334 335 336 336 339 340 341 341 342
281 284 288 287 288 283 282 280 280 282 284 295 295 297 303 310 310 311 319 324 325 329 332 334 335 336 337 338 340 341 342 341
279 281 285 285 288 288 283 281 281 282 286 290 292 294 300 303 306 308 309 310 314 318 323 332 334 335 337 338 339 341 341 341
284 288 288 287 288 289 285 285 283 285 287 290 293 295 298 300 302 303 303 306 308 310 313 314 324 336 337 335 339 340 341 341
282 288 288 286 289 290 289 289 288 288 288 294 296 299 298 298 300 300 301 302 305 307 310 311 317 321 334 335 334 340 339 340
276 285 284 281 286 288 289 290 289 285 290 295 294 295 296 297 298 299 300 302 302 304 307 309 313 320 328 335 338 336 339 341
277 278 272 282 291 291 291 292 292 293 292 293 293 295 296 299 297 297 298 300 301 303 305 307 311 320 331 337 337 337 339 342
275 272 281 286 288 287 286 287 291 290 291 292 293 294 296 299 298 297 298 300 301 303 305 307 311 321 330 334 336 338 338 340
276 276 275 284 290 293 292 284 290 291 291 291 291 285 292 296 297 298 299 300 301 303 304 305 308 318 325 327 334 334 338 339
280 279 283 289 291 294 281 282 291 292 292 291 289 292 294 296 297 298 299 301 303 303 302 304 307 312 319 323 327 337 341 340
281 278 273 292 290 284 287 290 292 292 292 292 293 294 295 296 296 297 299 302 303 302 302 304 306 309 315 320 328 336 335 336
278 278 287 291 289 292 293 292 293 294 294 294 294 294 295 295 296 298 301 303 302 301 302 304 306 308 311 319 331 331 331 331
281 284 287 289 292 294 294 293 295 296 296 296 294 295 295 296 296 299 301 302 303 302 302 303 306 308 311 317 327 327 326 327
287 287 288 290 292 294 294 295 296 298 297 295 295 296 296 297 297 299 300 302 303 302 302 304 307 308 310 314 323 322 321 323
281 287 287 288 293 295 294 295 297 297 295 297 297 296 296 296 297 298 299 301 302 302 302 303 305 307 310 314 320 318 317 319
288 290 291 293 294 296 295 297 298 298 297 296 297 297 297 296 297 298 299 300 300 301 302 303 304 309 311 316 316 313 312 314

GFSFLT2_sfc_thetae_069.txt.gz
Theta_e
299 300 301 299 298 303 296 295 296 298 302 305 307 310 317 327 329 330 337 339 339 339 341 342 344 346 347 348 348 349 349 353
297 300 301 301 300 297 298 291 291 295 298 298 300 306 315 322 327 328 334 339 340 340 340 342 344 346 347 348 348 349 350 351
297 294 293 298 297 297 299 297 294 293 295 299 302 310 310 311 320 330 334 335 340 342 342 343 343 344 345 347 348 348 349 352
292 296 297 297 294 294 297 294 295 299 293 302 307 310 308 307 311 316 325 331 337 340 340 341 342 342 343 345 345 346 350 352
290 294 296 294 295 294 292 295 292 295 292 302 308 307 307 304 304 306 310 312 317 320 323 337 341 342 342 343 345 345 347 347
290 290 294 292 293 295 294 294 291 293 294 299 303 303 304 305 304 304 305 306 308 309 314 319 326 336 342 343 344 346 346 344
293 293 293 293 292 293 293 293 292 293 294 298 302 303 303 305 306 305 303 304 305 305 308 310 314 323 334 340 341 345 347 347
290 292 292 291 292 292 292 293 293 294 294 300 302 304 304 304 304 304 304 304 304 304 306 307 310 315 325 334 339 342 342 346
287 290 290 287 291 292 293 296 295 293 296 300 300 300 301 302 304 303 303 304 305 304 304 306 308 310 320 331 339 341 342 342
288 288 281 290 295 294 295 295 297 298 297 297 298 299 301 304 303 303 303 303 305 306 306 307 307 309 315 325 330 336 344 342
287 285 287 290 292 292 292 291 294 294 296 297 298 300 302 303 303 302 303 304 305 307 309 310 310 309 309 316 324 328 337 344
289 284 282 291 293 296 296 289 294 295 295 295 296 294 299 302 302 302 303 304 305 307 310 310 311 310 309 311 317 323 329 339
289 287 290 295 295 298 288 290 295 295 295 295 293 295 298 301 301 303 303 304 306 307 309 310 311 311 309 309 310 319 326 338
287 284 283 297 294 291 294 296 296 296 296 295 297 298 299 300 301 302 302 303 305 307 308 310 311 311 311 310 311 317 323 333
290 291 295 298 297 299 298 296 297 297 296 297 297 297 299 299 300 301 302 303 305 305 308 309 311 311 311 313 314 314 322 330
289 294 294 297 299 299 300 298 299 299 298 298 298 298 298 299 298 299 299 300 302 304 305 306 309 310 311 312 315 313 316 325
292 295 295 297 299 300 300 301 300 301 301 301 299 298 299 299 298 298 298 298 299 301 303 305 308 308 310 310 312 314 312 320
293 298 298 297 300 301 300 300 302 302 302 303 302 301 300 299 299 298 299 300 300 301 302 303 305 306 308 311 312 314 313 316
298 300 300 301 302 303 301 302 303 303 304 302 303 303 302 301 302 302 300 301 300 300 301 301 302 304 307 309 310 313 314 317

GFSFLT2_sfc_thetae_072.txt.gz
Theta_e
304 306 308 309 306 311 303 304 302 304 307 310 314 322 324 329 332 333 341 343 342 344 346 347 348 349 352 353 356 357 356 359
302 305 306 307 311 302 303 297 296 301 303 302 309 317 321 321 324 334 338 342 344 343 346 347 348 350 352 353 356 357 357 357
303 301 302 303 303 305 306 304 299 298 300 306 312 315 316 317 316 321 327 334 335 342 345 347 349 350 350 352 354 355 357 358
299 301 302 303 303 305 300 301 303 303 298 311 315 313 310 310 311 312 316 318 321 323 324 336 346 348 349 351 351 354 355 357
295 299 301 301 302 303 304 305 303 299 297 313 314 316 307 305 306 308 309 310 310 310 313 318 329 335 346 348 349 350 353 354
293 297 301 298 298 301 303 300 302 303 300 307 310 311 312 306 304 305 307 308 308 308 311 315 317 320 333 343 349 350 351 352
297 297 298 298 297 298 300 301 300 302 302 306 308 309 310 311 311 305 305 306 307 307 308 312 313 314 321 332 340 348 349 351
296 297 297 296 297 297 297 298 301 303 301 307 309 310 309 310 310 310 308 307 308 309 309 308 310 312 315 319 331 338 347 348
294 296 295 292 297 297 298 300 301 299 303 305 305 305 306 307 309 309 309 310 311 308 308 311 312 314 312 316 325 329 333 347
297 294 286 296 300 300 299 300 303 303 303 303 304 306 307 310 308 308 308 309 310 311 312 312 313 312 316 316 319 322 328 336
292 291 293 294 297 297 298 297 301 301 301 302 303 305 308 308 308 307 308 309 310 311 313 316 317 315 315 313 313 315 321 327
293 289 287 297 298 301 301 294 301 301 301 301 303 298 304 307 307 307 309 310 310 311 312 314 317 318 317 317 314 313 315 320
293 292 295 299 299 302 291 295 302 301 301 301 300 302 304 306 307 308 309 309 310 311 311 314 316 317 316 318 318 318 317 318
295 291 288 302 299 296 301 302 301 301 302 301 302 302 303 304 305 307 307 308 309 309 310 313 315 315 315 316 319 320 320 316
296 298 301 305 302 304 302 302 301 302 301 302 300 302 303 303 304 305 306 306 306 306 307 309 313 314 313 316 318 318 318 320
295 299 300 303 304 304 303 303 303 303 302 302 301 303 303 303 304 304 305 305 306 304 305 306 310 312 313 315 316 316 316 318
298 300 300 302 304 305 304 304 304 303 303 303 303 303 303 304 304 305 306 305 305 303 303 305 307 308 309 311 313 312 314 315
298 303 303 301 306 306 304 304 304 304 304 305 304 304 305 305 306 305 305 304 303 305 303 304 305 306 309 309 308 309 311 313
303 305 305 305 306 307 305 306 306 306 306 305 305 306 306 304 304 305 303 303 304 303 302 303 303 303 305 309 306 307 306 310

GFSFLT2_sfc_thetae_075.txt.gz
Theta_e
312 316 316 311 308 313 306 308 304 307 310 316 324 325 328 332 334 331 339 338 342 342 346 343 345 348 349 356 358 360 359 361
308 310 313 310 315 306 307 299 298 304 306 307 317 320 324 324 328 333 333 333 332 337 343 345 345 347 348 352 356 359 359 360
306 305 305 307 307 310 310 306 301 300 303 316 319 321 320 315 319 321 322 326 329 328 333 338 339 347 348 351 354 357 358 360
302 308 308 308 308 309 303 303 306 304 300 318 319 318 315 310 312 316 314 313 321 323 326 325 331 336 341 348 351 354 357 361
299 303 307 304 307 308 309 308 305 301 302 318 318 313 311 309 309 310 312 313 311 317 315 315 323 333 337 342 346 350 355 355
296 300 304 302 304 306 306 303 304 305 307 311 315 310 306 307 308 311 310 310 311 309 313 314 316 319 329 333 344 345 350 353
301 301 303 304 303 303 303 305 303 306 308 311 313 315 312 309 308 308 308 309 310 310 311 313 317 317 318 326 334 340 344 349
297 300 300 299 301 301 303 304 305 307 307 313 314 315 314 315 313 309 308 310 310 310 312 313 314 318 319 320 325 332 334 343
295 299 297 294 299 301 302 304 306 304 308 312 311 311 311 313 313 312 312 311 312 313 314 315 315 317 318 321 322 324 328 331
297 300 289 298 303 303 301 304 308 308 309 311 311 311 312 314 312 311 312 312 314 314 315 315 317 318 320 321 322 321 323 322
295 296 298 299 300 299 300 300 305 307 307 308 308 310 310 311 311 311 311 313 314 315 315 318 319 322 323 321 321 322 320 321
297 292 291 299 303 305 305 297 305 307 305 305 306 301 307 310 310 310 312 313 313 314 316 316 319 320 320 320 322 322 320 322
297 295 299 304 303 305 293 298 306 306 305 305 305 307 308 309 309 311 312 312 313 314 314 316 318 318 319 320 320 322 324 324
298 295 292 306 303 298 306 308 307 306 306 305 306 306 306 307 307 308 309 310 311 311 311 313 315 315 316 318 321 322 322 322
300 300 307 308 306 310 309 308 305 306 305 304 303 305 305 306 307 307 308 309 310 310 310 312 313 314 313 316 319 320 320 320
299 303 304 307 307 307 306 306 306 306 305 305 305 306 306 306 306 307 308 309 310 309 309 310 312 313 313 314 316 315 315 316
301 303 304 306 307 307 306 307 306 306 306 306 306 306 307 308 308 307 308 309 308 308 308 309 311 311 312 313 313 312 312 312
300 306 306 306 309 309 307 306 307 306 306 307 307 306 307 308 308 308 308 308 307 308 307 309 309 309 310 310 310 309 309 309
306 310 309 309 308 310 308 308 308 308 308 307 308 308 307 309 308 308 309 308 307 305 307 307 307 307 308 307 306 307 304 307

GFSFLT2_sfc_thetae_078.txt.gz
Theta_e
312 312 312 310 307 313 306 307 302 306 313 321 325 327 331 332 330 332 334 333 337 344 346 343 345 343 352 357 359 361 360 363
310 312 314 310 314 305 307 298 297 303 307 310 318 321 325 323 322 323 325 328 331 335 339 343 347 345 352 358 359 360 360 362
309 307 307 309 308 308 308 306 300 298 302 320 320 322 319 318 317 314 318 320 326 326 331 337 342 345 342 355 358 360 361 361
303 309 311 311 309 308 303 303 306 301 301 321 320 318 316 315 316 313 311 315 319 320 321 323 331 336 335 344 344 358 360 362
300 304 307 304 307 308 308 308 306 298 303 319 317 315 313 313 314 313 310 311 315 319 318 319 319 325 333 335 336 342 350 359
294 298 304 302 305 307 306 301 303 303 308 312 313 312 311 311 312 312 312 312 313 315 317 319 317 319 323 332 332 336 341 346
303 303 302 304 303 305 303 305 303 306 309 312 313 312 311 312 312 311 310 311 313 313 316 317 318 319 318 320 328 333 335 341
299 303 301 300 304 303 304 304 305 308 308 316 315 314 312 312 312 311 312 311 312 314 315 316 317 320 322 320 320 327 329 333
296 301 300 295 300 301 302 305 308 304 309 313 312 313 314 314 313 312 312 313 313 314 315 318 317 320 320 324 325 323 323 325
297 298 289 300 306 304 302 305 310 312 311 313 312 313 315 314 312 312 312 313 314 314 315 318 319 319 323 323 326 325 326 324
295 291 297 300 302 302 300 301 310 310 311 312 312 312 310 311 312 312 312 313 314 314 315 320 321 323 324 323 326 325 325 327
298 293 290 299 303 306 305 297 308 310 309 309 309 304 306 311 311 312 313 313 313 315 316 317 319 319 319 322 324 323 324 326
296 295 298 305 304 306 294 297 308 309 309 307 305 308 310 311 311 312 312 312 313 313 313 314 316 316 317 319 319 322 323 324
297 295 293 307 304 298 306 309 307 308 306 306 308 308 308 309 309 309 309 310 311 311 311 313 314 314 314 317 320 321 322 322
300 302 310 309 308 312 311 309 308 308 307 307 305 306 307 307 308 308 308 310 310 310 311 312 314 313 312 316 317 318 318 318
302 305 306 309 309 310 309 310 309 309 307 306 305 306 306 307 307 308 309 309 309 308 308 310 313 313 312 315 317 315 315 315
301 304 305 306 308 308 307 308 308 307 307 306 307 306 307 307 308 308 308 309 309 307 308 308 311 311 311 313 313 309 311 311
301 307 307 307 309 310 308 306 307 307 306 308 308 307 308 307 309 308 308 309 308 308 307 308 308 309 311 312 310 306 305 306
306 310 310 311 313 311 309 309 308 308 309 308 309 309 309 309 309 309 309 309 308 307 308 308 307 307 308 309 307 305 303 304

GFSFLT2_sfc_thetae_081.txt.gz
Theta_e
308 306 303 301 299 304 297 296 293 302 310 317 318 320 323 323 327 327 333 334 337 338 336 341 339 340 344 346 348 350 349 351
309 308 306 301 307 297 297 291 291 304 306 308 315 317 314 312 314 319 322 331 332 332 333 339 342 342 347 349 349 351 352 354
305 299 298 302 300 302 299 297 292 295 299 315 315 313 309 309 310 314 316 319 324 328 329 331 336 340 341 341 344 348 352 352
298 305 306 302 302 303 294 293 299 301 300 318 315 313 310 309 309 311 315 316 318 319 322 325 331 334 335 337 338 338 341 347
296 300 300 297 302 298 298 297 297 296 299 313 313 312 311 307 309 309 310 313 315 316 317 320 324 328 333 333 335 337 338 341
291 296 298 295 299 300 296 291 299 301 303 307 307 307 307 308 310 309 309 310 313 314 317 318 320 322 323 328 333 335 337 335
299 302 300 298 299 301 297 297 299 304 305 306 307 306 308 309 309 309 310 310 311 313 315 319 319 318 319 322 324 329 332 332
294 300 300 297 300 302 301 306 307 308 305 311 309 309 309 309 309 307 306 310 312 313 314 316 318 318 319 318 323 324 323 325
289 299 299 292 297 298 305 308 306 302 305 309 307 308 308 308 309 308 308 308 309 310 311 312 313 317 318 321 322 322 322 322
289 294 285 296 303 302 300 308 309 308 308 310 311 310 309 309 307 308 309 309 308 309 312 313 314 316 318 322 323 322 322 323
288 287 293 298 301 298 297 302 310 308 308 308 308 306 304 308 308 308 308 308 308 309 313 313 313 316 317 318 320 319 320 322
293 289 285 295 301 305 303 295 309 309 307 306 306 297 299 306 308 308 308 308 308 310 311 310 310 311 312 314 316 315 317 319
291 289 295 301 302 304 292 295 305 307 306 305 300 301 304 307 307 307 307 306 308 308 307 308 309 310 310 311 310 313 315 316
291 287 286 305 302 297 302 303 304 304 305 304 304 305 305 305 305 305 305 306 307 306 306 308 309 308 307 307 310 311 312 313
294 294 303 305 304 306 306 303 304 303 304 304 303 303 303 303 303 304 304 305 305 304 304 307 308 307 305 307 309 309 308 309
296 300 303 304 306 306 307 304 306 305 303 304 303 303 302 302 302 303 303 303 303 302 303 304 306 306 305 307 307 305 303 304
297 299 301 304 306 305 304 306 306 305 304 303 304 303 303 302 303 302 303 303 303 302 302 302 304 304 305 305 303 301 301 301
295 304 303 304 307 307 304 303 305 303 303 305 305 303 304 304 303 302 302 304 303 302 301 302 302 302 303 302 302 300 299 299
302 306 308 308 309 311 306 305 306 305 305 304 304 305 304 304 303 307 303 305 301 302 302 301 301 300 302 302 301 299 296 297

GFSFLT2_sfc_thetae_084.txt.gz
Theta_e
307 304 302 296 294 300 295 292 293 303 306 313 318 316 317 319 323 325 332 334 336 336 339 340 340 342 342 345 346 345 345 345
305 305 302 298 302 295 293 288 287 300 302 302 311 308 311 312 316 318 321 325 331 333 335 339 342 342 342 343 346 347 346 346
301 296 297 299 296 298 296 293 290 293 298 316 310 309 307 308 313 314 318 321 323 328 334 338 339 340 340 340 342 339 341 341
296 303 304 302 297 297 295 294 297 297 302 316 311 311 309 308 310 313 316 318 320 321 327 332 333 337 338 338 337 338 340 341
292 297 299 296 296 293 294 294 295 292 298 311 312 310 308 306 309 311 314 315 316 319 320 324 328 332 335 337 337 338 337 338
288 295 295 293 296 296 292 289 296 296 301 303 305 305 306 306 308 309 311 312 315 316 317 319 322 325 330 333 336 337 336 337
298 297 297 296 296 298 292 295 297 300 301 302 304 304 305 306 309 308 308 309 311 314 316 318 318 322 323 325 328 332 333 334
293 301 299 295 298 301 304 308 305 304 300 306 306 307 305 306 307 308 309 310 312 313 315 317 317 317 323 322 323 324 324 325
287 297 298 291 295 297 304 309 306 300 303 306 304 306 307 306 307 308 309 310 312 313 314 314 317 319 317 320 322 322 322 323
286 290 285 295 301 300 303 306 307 305 305 306 306 307 307 308 307 307 307 309 310 313 313 314 317 317 319 321 321 322 322 324
285 284 291 298 299 297 295 299 308 306 307 307 306 306 302 307 307 306 304 305 308 310 308 308 309 312 315 315 316 316 317 319
287 284 282 292 300 303 304 294 306 307 305 303 304 296 299 305 306 305 306 307 306 307 307 308 308 311 309 308 309 310 312 314
286 285 292 299 301 303 290 292 305 306 305 304 299 300 301 305 304 304 305 306 306 306 305 305 306 307 305 305 305 308 310 311
286 282 283 302 302 294 297 299 302 303 302 301 302 303 303 303 302 303 304 305 305 304 304 305 305 304 303 304 306 306 306 306
290 289 298 301 301 302 303 301 300 303 305 303 303 302 302 301 301 301 302 301 302 302 303 304 304 303 302 303 303 303 301 301
292 297 298 300 303 304 303 303 303 303 302 303 300 301 301 299 301 301 300 300 301 301 301 300 302 302 301 301 301 300 298 298
291 295 297 302 302 303 302 304 304 302 302 303 301 300 300 300 300 300 300 300 301 300 299 299 300 300 300 300 299 297 297 297
291 298 297 297 301 303 301 302 302 301 300 302 301 301 302 300 300 300 300 300 299 298 299 298 299 299 299 299 298 296 295 295
298 301 302 305 308 308 302 301 303 301 302 302 302 302 302 300 299 303 301 299 299 299 299 298 297 297 298 298 297 296 294 295

GFSFLT2_sfc_thetae_087.txt.gz
Theta_e
304 302 300 294 293 298 292 291 291 300 303 313 316 313 319 322 324 323 328 333 333 335 337 337 338 340 343 343 341 341 340 342
303 303 300 298 300 293 292 287 286 298 298 301 312 310 313 316 318 321 324 325 330 333 337 338 338 341 342 345 344 344 341 341
299 295 292 296 295 295 294 292 289 292 297 309 310 309 308 312 314 318 320 323 325 328 337 339 341 342 342 341 343 340 343 343
293 299 300 296 292 295 293 291 293 294 297 312 310 309 309 309 313 316 318 320 322 325 329 335 338 340 341 340 338 338 339 340
290 294 298 294 294 291 291 294 294 292 295 312 311 308 308 307 309 314 316 316 320 323 324 326 331 337 338 338 337 338 338 338
288 292 294 291 294 294 290 288 291 293 302 306 305 304 304 305 308 311 313 314 316 318 320 323 324 327 334 338 339 338 338 338
296 296 296 294 295 298 291 292 294 298 300 305 304 303 304 306 308 308 309 312 314 315 317 319 321 323 326 329 332 336 336 336
292 301 297 294 297 297 304 304 302 300 297 304 304 304 304 306 307 306 308 309 312 314 315 316 318 321 324 323 325 326 327 329
287 293 299 293 294 295 301 305 303 298 300 304 302 303 303 304 306 307 310 310 312 313 315 316 317 317 318 320 322 322 322 324
286 289 284 296 301 302 303 304 304 303 303 305 304 304 304 306 308 309 310 311 312 312 312 314 317 319 319 320 319 320 320 321
284 283 289 295 298 297 298 298 305 304 305 305 305 304 302 306 307 307 306 309 308 309 310 312 313 314 312 312 312 312 313 314
285 284 282 291 299 301 300 293 306 306 305 303 304 296 298 303 305 305 306 306 306 306 307 307 306 307 307 306 307 307 309 310
285 283 290 298 301 303 292 290 304 308 306 305 302 299 302 303 303 304 305 305 305 305 305 304 304 306 304 303 303 305 306 306
283 281 282 300 300 291 296 298 301 306 306 305 300 302 303 303 302 303 303 304 304 303 302 302 303 304 301 301 301 302 302 302
289 287 295 299 299 300 299 299 299 301 302 302 303 303 302 301 301 302 303 303 303 303 301 301 302 301 299 299 300 300 299 298
291 295 297 299 300 300 300 301 303 304 306 307 305 304 301 300 300 300 301 301 301 300 299 299 300 300 299 299 299 298 297 296
290 293 296 300 300 300 302 303 302 304 304 304 304 301 300 299 300 300 299 299 300 298 298 298 298 298 298 298 297 295 295 295
290 294 295 295 299 303 301 302 302 301 300 302 303 301 302 300 300 299 298 298 298 297 298 297 298 297 297 297 296 294 293 294
297 299 300 301 304 305 302 301 302 301 301 300 300 302 301 299 299 301 299 298 298 298 297 297 296 296 297 296 296 294 292 292

GFSFLT2_sfc_thetae_090.txt.gz
Theta_e
300 298 299 293 290 294 290 289 292 297 303 312 317 318 322 322 324 327 331 332 332 334 336 337 339 340 342 342 341 341 343 344
301 300 299 296 299 292 290 286 285 297 299 299 311 313 318 318 320 323 326 328 333 334 335 337 339 341 344 343 341 342 342 342
296 294 292 295 294 292 292 291 290 291 297 309 311 314 314 316 319 321 323 325 327 330 337 338 340 342 343 345 345 342 343 344
291 296 298 294 292 293 291 290 292 293 295 310 310 310 314 314 318 319 321 322 325 328 331 338 339 341 341 341 341 341 341 342
289 292 295 293 293 289 290 294 294 292 293 310 309 308 309 310 314 317 317 319 322 326 328 330 336 339 339 339 339 339 339 338
286 288 291 291 293 295 289 289 291 293 298 307 306 305 305 306 310 314 316 317 319 321 324 326 329 333 337 337 338 339 338 338
295 295 295 294 294 296 296 290 293 295 300 303 305 304 304 306 310 311 312 314 317 318 320 322 325 327 331 331 334 338 338 339
292 297 298 296 297 299 303 303 301 300 300 305 305 305 304 306 306 308 310 312 314 316 318 320 322 324 326 327 328 330 330 332
287 292 298 293 295 299 302 304 302 297 299 303 302 304 304 305 306 307 309 311 313 314 315 316 317 320 321 322 325 325 325 326
287 288 284 295 301 304 303 304 304 302 303 304 303 304 305 307 307 308 309 311 311 312 314 317 318 317 317 317 317 318 317 318
284 283 288 294 296 296 296 299 304 302 303 303 304 304 304 307 308 307 310 310 310 313 314 313 312 313 311 311 312 311 311 312
284 282 281 289 299 304 301 291 305 305 304 303 303 297 299 305 306 308 308 309 309 309 311 309 309 310 309 308 308 306 307 308
285 283 289 296 300 303 291 291 305 308 306 304 302 303 303 304 305 306 306 306 307 306 305 306 306 306 304 304 303 304 305 305
283 282 282 299 299 292 296 300 304 307 306 305 302 303 304 304 304 304 304 305 305 303 303 304 305 304 301 301 302 303 303 303
287 287 294 297 297 300 300 301 303 305 305 304 303 303 303 303 303 304 304 303 303 302 301 302 303 302 300 301 302 301 300 300
291 295 297 299 301 302 302 302 304 304 305 306 305 304 303 303 303 304 304 302 303 302 301 301 301 301 301 301 301 300 299 298
290 293 296 300 302 302 303 304 304 305 306 306 305 304 304 303 302 303 303 303 302 301 300 300 300 300 300 300 299 298 298 297
289 295 296 297 300 303 302 303 303 303 303 305 305 304 304 303 302 302 302 302 300 300 300 299 299 299 299 299 298 297 297 297
296 297 298 302 305 306 302 302 303 302 303 302 302 303 303 302 301 302 301 301 300 300 300 299 299 299 299 299 298 297 296 296

GFSFLT2_sfc_thetae_093.txt.gz
Theta_e
305 307 307 301 299 307 302 302 302 307 312 317 321 322 327 329 331 333 335 333 336 341 343 343 339 344 348 348 350 350 350 352
306 306 305 305 307 300 301 296 296 304 307 311 317 318 321 324 325 329 333 334 336 339 342 344 342 341 346 345 349 351 350 351
304 303 302 303 302 303 304 302 298 298 305 318 320 321 319 321 324 325 328 331 333 338 340 342 341 341 344 346 350 349 345 348
298 302 304 304 304 305 299 300 305 305 305 317 319 323 323 322 325 327 327 328 330 334 339 341 342 342 343 346 349 349 350 346
297 301 304 303 302 302 305 308 305 299 304 315 317 319 319 319 322 322 324 325 327 331 334 340 342 343 341 342 344 343 342 340
296 298 301 301 303 301 303 301 304 305 307 310 315 316 315 315 318 320 321 323 324 326 328 332 341 342 344 343 344 343 341 340
301 302 303 303 305 307 301 301 302 304 306 312 316 317 317 319 316 317 319 320 322 322 324 327 330 334 337 340 341 340 339 338
298 301 303 300 305 309 308 307 307 307 307 312 318 316 314 317 315 316 318 318 319 320 322 323 325 328 329 331 333 340 340 339
296 299 302 298 301 304 306 309 309 305 310 314 312 313 315 317 318 316 317 317 317 318 317 319 321 323 324 326 328 328 329 330
296 299 291 300 306 307 306 308 310 310 310 314 315 316 316 317 318 317 318 319 319 320 318 317 318 318 318 320 321 321 320 320
295 295 296 299 300 301 302 303 310 309 311 312 312 313 312 316 318 318 318 319 320 322 319 315 314 315 314 312 313 314 314 315
296 291 289 298 303 307 306 299 312 312 312 311 312 310 313 315 316 316 317 316 317 315 314 314 313 312 310 309 308 307 309 310
296 294 296 302 305 307 297 300 310 313 314 313 312 314 315 316 316 317 315 315 314 316 313 310 311 313 310 310 307 308 309 311
295 293 291 305 305 300 305 309 309 314 315 313 311 312 313 314 314 314 315 315 316 315 315 315 315 312 309 307 308 309 309 309
299 299 304 307 307 309 309 308 311 312 316 315 311 311 312 313 313 314 314 313 314 313 312 312 312 313 311 309 310 310 309 308
301 305 306 308 309 309 310 310 311 312 314 314 312 312 311 312 312 312 312 311 312 311 311 310 311 311 310 309 309 309 308 307
301 303 305 308 310 310 309 311 311 312 313 314 313 312 312 311 311 311 311 311 312 311 311 310 310 309 308 308 308 306 306 306
302 308 309 308 311 311 310 310 312 312 312 314 315 314 314 311 310 310 310 311 311 311 311 309 309 308 307 307 307 306 305 305
306 308 309 310 311 311 310 310 310 311 312 313 313 314 314 314 313 311 311 311 309 309 311 309 309 308 308 307 306 306 304 304

GFSFLT2_sfc_thetae_096.txt.gz
Theta_e
310 312 311 309 306 313 307 308 305 308 312 320 325 327 331 334 335 336 340 341 341 344 347 349 346 348 346 347 353 357 357 358
309 311 311 309 312 306 307 300 299 306 308 309 320 324 327 331 334 336 340 342 342 344 346 345 344 345 346 351 351 354 355 357
308 305 304 306 305 307 309 307 301 300 306 323 323 327 327 328 330 334 339 341 342 345 348 349 345 343 344 345 348 353 354 356
303 309 311 309 307 308 301 304 306 306 308 324 327 330 330 326 330 331 334 335 338 344 345 345 347 344 342 344 344 348 355 355
301 305 309 306 308 310 309 308 306 303 307 325 327 329 329 329 330 329 330 331 334 339 342 345 344 342 342 345 349 350 348 349
299 302 307 305 306 308 308 303 304 306 310 320 324 325 325 327 326 326 328 329 328 331 338 341 344 346 346 346 347 347 345 344
306 307 307 306 306 306 306 307 304 308 309 319 324 326 327 326 327 326 328 331 328 326 329 331 338 347 348 347 348 350 345 342
303 306 306 306 308 308 307 307 308 309 309 319 327 329 328 326 322 325 327 328 327 325 327 327 328 334 342 345 346 350 345 344
299 304 305 301 306 307 310 311 311 307 316 321 322 323 325 326 326 326 327 328 326 324 324 325 325 327 328 330 334 335 336 337
299 302 293 305 310 310 309 311 313 315 317 320 322 325 327 329 328 326 326 323 325 322 321 320 319 319 324 323 324 325 326 325
299 298 302 303 306 306 306 307 313 315 317 321 324 323 322 325 328 329 329 329 326 325 320 318 317 317 316 317 319 318 320 322
300 296 294 304 306 310 310 303 314 317 318 319 321 316 320 325 327 326 327 329 329 324 317 315 314 315 312 311 311 311 314 316
299 297 300 307 308 311 300 304 315 319 320 320 319 318 323 325 324 325 326 325 325 323 319 317 315 312 310 309 308 308 311 312
301 297 294 309 308 304 310 314 315 319 320 320 320 320 322 323 322 322 322 322 320 317 314 313 316 317 312 309 310 312 313 312
302 304 311 313 313 314 315 314 315 317 320 321 319 319 321 321 321 321 321 320 321 320 320 320 317 315 311 312 314 314 312 312
304 308 309 312 314 314 315 314 315 318 320 321 319 320 320 321 321 321 322 321 321 320 319 318 319 318 318 317 316 315 313 313
305 309 311 313 314 314 313 314 314 317 319 320 321 320 320 320 321 321 321 320 320 320 319 318 318 317 316 316 315 314 312 313
303 308 310 308 314 316 314 313 314 314 315 319 320 320 321 321 322 321 321 321 320 320 319 318 317 316 315 314 313 312 311 310
309 314 313 315 315 316 314 315 315 315 317 316 318 320 321 321 322 318 320 319 317 317 318 318 316 315 315 314 313 311 310 311

GFSFLT2_sfc_thetae_099.txt.gz
Theta_e
313 314 314 311 310 316 307 310 304 308 316 322 324 324 329 331 334 336 338 336 338 341 347 349 350 352 354 358 359 358 357 359
311 313 313 311 315 308 309 301 298 306 309 310 320 324 329 331 334 337 339 341 339 344 347 346 345 354 351 351 355 358 358 357
309 307 306 307 307 311 311 309 302 302 308 321 324 328 329 333 336 337 340 342 346 346 348 351 351 351 348 352 353 356 357 359
305 310 312 311 308 309 304 305 308 306 307 326 328 331 333 334 337 341 344 344 345 346 348 348 348 342 345 344 346 346 352 357
302 307 310 307 309 309 309 309 306 303 309 326 331 330 333 333 334 338 339 342 344 345 347 350 347 346 347 346 344 346 347 354
300 303 308 304 307 309 308 304 304 306 314 323 328 329 331 331 331 331 333 335 337 340 343 346 349 349 348 347 347 349 349 345
307 309 309 307 306 307 306 309 306 307 310 322 328 329 331 331 330 330 332 333 331 333 336 342 347 348 349 348 348 350 349 350
305 308 308 306 308 308 308 308 309 308 313 326 331 333 332 331 332 332 331 332 332 329 331 331 336 347 350 351 348 350 351 350
300 307 307 302 308 308 309 311 310 308 315 323 327 329 331 331 331 330 331 330 330 330 329 329 328 333 338 344 351 349 347 346
304 305 296 306 312 313 311 313 314 317 320 323 326 330 332 334 333 332 330 330 332 329 325 323 321 324 327 327 333 338 337 336
298 296 303 307 309 309 309 310 315 317 319 323 327 329 328 332 334 332 332 332 332 330 325 321 318 317 319 320 320 321 327 327
304 296 296 302 310 313 312 305 316 318 319 322 324 318 324 331 332 332 331 330 329 326 321 318 316 317 314 313 317 314 314 317
302 299 300 310 311 313 301 304 317 319 320 322 322 325 329 331 330 331 330 329 327 324 318 315 315 315 313 312 309 312 313 316
302 298 297 312 310 305 315 317 318 321 322 322 324 325 328 328 328 329 328 327 327 326 323 318 317 313 310 310 314 313 314 314
305 306 315 315 316 318 318 317 317 319 322 324 322 324 326 327 327 327 327 326 325 322 320 320 321 323 312 312 314 314 314 313
307 310 310 312 315 316 317 316 317 319 321 322 321 324 325 326 326 325 326 325 325 324 322 321 319 318 317 320 320 318 317 315
308 311 312 313 315 315 315 315 314 317 319 321 322 323 325 325 326 326 326 325 325 322 322 322 323 322 321 318 317 315 316 315
306 312 313 312 316 316 314 314 315 315 317 320 323 323 324 325 326 327 326 325 324 324 323 322 322 321 320 320 319 317 315 314
311 315 316 316 317 318 315 316 316 316 317 317 320 324 324 323 325 322 326 325 325 324 324 324 322 320 320 319 318 317 314 316

GFSFLT2_sfc_thetae_102.txt.gz
Theta_e
312 314 313 310 307 314 306 308 305 308 314 322 322 322 325 327 329 329 331 334 337 337 342 339 339 349 351 356 357 360 359 363
311 313 313 312 314 305 308 299 298 305 306 311 317 319 324 326 328 327 329 334 336 337 338 335 337 345 353 359 357 358 355 360
310 307 306 307 306 308 309 309 300 301 306 320 323 323 325 329 332 333 337 337 337 338 344 335 337 351 352 355 355 358 356 354
305 311 312 310 307 308 303 304 307 306 308 323 323 328 329 333 335 341 339 339 336 340 343 346 346 352 349 348 349 352 352 355
302 307 310 306 308 308 308 308 306 302 307 324 318 330 335 336 340 340 345 342 342 343 347 351 350 349 350 348 348 347 352 352
299 303 308 304 305 308 306 302 303 304 313 323 326 329 331 334 338 337 340 342 345 346 347 348 351 350 348 348 348 348 347 348
306 307 308 308 305 306 306 306 304 307 313 319 325 329 331 332 333 334 334 335 340 338 341 346 349 350 351 350 349 347 346 347
305 308 308 306 308 307 307 307 308 310 316 322 324 328 331 330 329 330 332 333 334 335 338 336 342 347 348 348 347 350 349 347
303 307 307 302 307 308 308 309 309 311 318 319 315 318 330 331 331 331 331 331 332 332 332 330 331 338 339 350 351 351 351 351
302 304 296 307 314 312 312 311 318 319 319 323 324 331 332 334 333 331 330 330 331 329 327 324 324 327 327 330 339 340 339 345
297 296 301 306 309 309 310 310 316 318 321 325 328 330 329 334 335 332 331 331 330 328 324 321 319 321 322 321 321 326 327 329
302 297 294 305 311 315 314 302 315 318 320 322 324 317 324 331 333 332 329 328 326 323 321 318 317 318 317 318 317 314 315 318
296 297 301 309 312 314 300 305 317 319 321 324 323 326 329 330 329 331 330 327 325 321 317 315 316 315 313 312 312 314 316 317
304 299 296 313 311 304 315 318 320 321 323 324 325 329 329 328 328 328 326 326 325 320 317 317 317 316 313 312 314 315 315 316
306 307 316 317 319 321 320 318 318 320 322 324 323 325 328 327 328 326 327 326 327 323 320 318 318 316 313 312 317 316 315 315
308 313 313 314 315 317 318 317 317 320 321 322 322 324 326 327 326 326 326 325 324 322 320 320 323 323 317 316 316 316 316 316
307 312 313 313 314 316 316 315 314 318 320 321 323 323 325 326 327 326 327 326 326 326 323 321 322 319 320 323 323 319 319 317
304 315 317 313 317 317 315 313 315 315 316 321 322 322 325 325 326 325 325 327 327 327 326 325 325 325 324 323 323 320 317 315
311 315 316 315 318 318 316 316 317 316 319 316 320 322 322 325 326 322 326 326 328 328 328 327 326 324 324 324 323 322 321 326

GFSFLT2_sfc_thetae_108.txt.gz
Theta_e
305 313 315 308 302 306 300 299 300 305 311 317 320 322 322 323 325 327 331 334 333 333 336 337 340 343 345 344 344 345 346 345
306 305 311 309 310 298 296 293 293 300 302 305 311 315 321 323 323 327 330 332 333 335 339 340 339 338 344 346 346 347 347 347
301 297 297 297 297 296 299 299 296 296 301 312 312 315 319 322 325 326 328 330 334 336 340 341 342 343 340 342 347 348 347 347
297 303 304 300 297 296 291 292 298 299 303 319 318 318 321 322 324 326 328 331 335 335 335 337 338 339 340 339 342 346 345 346
294 298 303 298 299 298 293 293 294 296 302 317 320 318 318 320 326 326 327 331 334 335 333 335 336 337 339 339 340 346 345 347
291 294 298 297 301 301 293 289 290 295 304 313 312 320 324 326 328 328 327 331 333 333 334 334 336 336 338 341 345 344 344 345
299 305 305 304 304 305 299 295 293 297 306 312 314 323 326 330 332 331 326 330 332 333 333 333 335 341 341 342 342 342 341 340
299 304 304 303 305 307 307 306 313 312 310 319 325 326 326 328 330 331 328 331 332 333 335 335 338 337 341 341 340 340 339 338
292 300 303 297 302 305 306 308 307 306 311 317 317 323 322 325 329 330 331 332 331 331 333 335 335 340 335 341 341 339 339 340
291 295 289 299 308 308 307 308 312 315 315 316 314 316 324 328 328 327 328 327 327 324 325 325 328 329 335 341 341 339 339 340
289 289 296 303 306 306 303 303 313 316 318 321 322 325 323 328 328 327 326 324 324 324 323 323 326 327 328 331 332 334 336 339
290 288 288 299 308 313 311 298 313 316 314 317 322 313 318 324 323 320 320 319 319 321 321 322 321 324 324 321 323 322 324 326
292 289 295 305 309 312 299 299 314 316 315 319 316 319 322 324 321 320 318 317 317 318 316 316 321 320 319 319 317 319 320 321
290 286 286 308 309 302 307 313 317 316 317 315 316 318 323 323 320 317 316 315 317 315 314 315 317 317 315 315 317 319 318 320
299 295 302 307 307 313 312 317 318 314 322 319 316 319 323 321 319 318 316 315 317 314 314 314 314 313 311 311 312 313 314 313
299 303 308 311 311 313 313 309 311 317 320 325 322 323 321 320 319 318 316 313 312 311 310 308 310 310 309 309 310 308 307 307
300 304 308 309 309 309 310 312 313 315 318 323 324 322 321 320 320 320 317 315 314 313 311 310 310 307 308 308 308 307 307 306
297 304 301 304 308 310 309 309 312 311 312 317 323 321 321 319 318 317 316 315 314 313 311 311 310 308 308 308 309 308 306 306
306 308 306 310 312 312 309 311 312 310 311 315 320 320 321 318 316 317 317 317 316 313 313 312 310 309 310 310 310 308 305 305

GFSFLT2_sfc_thetae_111.txt.gz
Theta_e
314 316 314 308 299 303 298 296 296 303 310 315 318 318 321 323 325 328 330 332 331 332 334 335 337 340 341 340 339 342 342 341
302 314 314 307 308 298 297 293 289 298 303 303 312 316 321 321 322 326 330 333 333 332 335 337 340 340 341 342 340 342 343 341
299 297 301 297 298 296 297 297 293 293 299 312 312 314 320 321 323 325 329 332 334 334 337 338 341 342 343 342 342 344 344 344
295 299 302 296 295 295 292 290 296 297 300 317 316 316 320 323 323 326 329 332 334 337 337 338 340 341 341 340 343 345 345 345
293 297 301 298 299 294 290 290 292 293 298 317 318 316 320 321 323 326 328 331 334 335 335 336 337 336 337 338 338 342 344 343
289 293 296 298 302 302 290 287 288 293 296 310 314 319 317 320 322 325 329 330 332 333 332 333 335 336 336 338 340 342 344 345
294 303 303 302 304 305 299 298 289 293 295 308 317 321 322 324 325 325 328 330 332 332 332 332 334 335 337 340 342 343 344 341
296 304 304 300 304 306 305 306 304 308 308 319 323 326 326 326 327 324 327 328 330 332 333 333 335 338 338 340 341 341 341 342
291 298 301 295 300 303 304 309 307 302 308 317 316 319 320 325 327 328 328 330 330 330 333 334 335 337 338 339 340 338 338 339
291 293 289 297 306 308 305 307 312 314 314 316 320 323 324 326 327 327 326 326 327 326 327 327 330 333 336 338 339 339 337 337
289 288 295 304 305 303 299 300 313 314 316 321 324 324 321 325 325 324 325 324 324 324 323 325 327 327 334 333 336 338 337 339
290 287 287 299 307 311 308 296 313 316 319 319 318 312 317 322 321 319 318 319 321 323 323 323 324 327 327 331 334 333 335 337
291 288 293 302 308 309 295 297 314 316 319 318 316 318 320 322 318 317 316 316 318 317 317 320 324 323 321 321 320 325 328 328
288 285 286 305 306 299 303 310 315 314 317 316 319 321 320 318 316 315 314 316 317 315 314 316 318 319 318 317 320 323 326 325
296 294 300 304 305 308 312 314 315 318 316 315 317 320 320 318 317 316 315 315 316 314 313 313 314 315 313 312 315 316 316 316
297 299 304 307 309 311 314 313 316 319 317 316 318 322 319 317 316 315 314 313 313 313 312 311 310 309 310 309 310 308 309 309
298 301 306 309 307 308 311 314 317 320 322 323 322 319 317 316 315 315 313 311 311 309 308 307 306 307 308 308 306 305 304 304
296 302 302 304 306 310 310 311 313 315 315 321 322 320 319 316 315 315 312 313 312 311 310 309 306 305 306 306 306 306 304 305
303 305 304 307 308 310 310 310 311 315 319 318 320 319 318 315 314 314 313 313 312 312 310 309 308 306 306 306 308 307 305 304

GFSFLT2_sfc_thetae_114.txt.gz
Theta_e
314 315 313 306 299 302 296 293 295 301 307 314 318 319 323 324 327 327 330 330 331 332 332 335 337 339 341 340 340 342 343 343
301 314 313 307 310 298 296 289 288 297 301 302 311 314 321 323 324 326 330 330 331 332 333 334 338 340 341 341 340 342 343 342
297 297 303 298 299 297 297 296 292 291 296 310 312 316 320 323 326 327 328 331 331 333 334 335 337 339 340 341 340 341 344 343
295 300 301 299 299 297 292 289 295 294 297 316 315 316 321 322 324 326 329 331 333 333 335 335 338 339 339 341 341 343 345 345
293 296 301 297 300 293 290 290 293 292 294 318 316 318 321 321 323 326 328 330 333 334 335 336 338 340 341 342 342 345 345 345
290 293 299 299 302 303 289 286 288 293 293 310 315 316 319 321 323 326 327 331 333 334 335 336 337 339 340 340 343 344 344 344
296 301 304 303 302 304 297 297 289 296 303 312 317 320 319 321 323 325 327 330 331 332 333 335 335 336 337 338 340 342 342 344
298 302 302 300 302 305 305 307 305 305 305 320 323 326 325 324 323 325 327 329 331 332 333 333 335 335 337 339 340 342 343 340
292 298 299 296 299 302 304 309 308 303 307 317 317 320 323 326 326 324 328 329 330 331 332 333 335 336 335 338 341 340 339 340
292 294 287 298 307 306 304 307 311 314 315 319 319 321 323 326 326 327 328 328 328 329 330 329 332 337 339 339 338 337 337 338
290 289 293 303 306 304 300 301 311 314 317 322 323 321 320 323 323 323 323 324 324 325 325 326 328 332 335 337 337 338 336 336
290 286 286 297 307 311 307 297 311 315 319 321 318 311 318 322 321 319 320 321 321 323 323 323 325 331 334 333 335 335 335 335
289 288 293 301 309 312 296 298 313 319 319 317 314 316 322 320 317 317 318 318 318 318 317 319 323 325 324 323 322 327 328 329
288 286 286 306 307 302 305 313 315 316 318 317 319 319 318 316 315 316 316 317 318 316 316 318 322 319 317 316 321 324 326 323
293 292 300 303 305 310 312 314 314 316 316 321 319 318 317 314 314 315 315 315 316 315 313 314 316 317 315 316 317 319 319 318
296 300 303 307 309 313 317 316 318 318 317 317 319 319 316 315 315 314 315 314 314 314 312 310 310 311 311 311 312 311 311 313
296 301 306 308 310 310 313 317 320 318 318 320 320 318 316 315 315 314 313 312 311 310 309 309 310 310 310 309 309 307 307 307
295 303 302 304 309 314 315 316 319 319 321 322 320 318 317 315 314 312 311 312 311 312 311 309 309 309 309 309 309 307 306 307
302 305 304 307 309 314 313 314 317 318 320 320 321 320 319 316 315 314 313 314 313 313 312 311 307 307 308 309 312 310 309 309

GFSFLT2_sfc_thetae_117.txt.gz
Theta_e
319 319 317 311 307 310 305 307 303 308 312 317 321 322 323 323 328 330 328 332 335 339 338 342 343 345 346 347 348 351 352 354
308 319 317 315 316 305 308 296 295 303 306 309 316 319 322 323 326 330 331 330 335 338 339 342 344 346 348 348 348 350 352 353
303 308 307 310 309 309 309 307 298 297 302 315 318 321 321 324 328 330 330 330 333 335 336 340 345 346 348 349 350 349 351 353
302 306 306 312 310 310 303 300 305 305 302 321 320 322 325 326 329 330 331 332 333 335 335 340 342 345 346 349 349 351 352 354
299 304 307 306 310 306 303 305 304 300 301 320 322 321 326 327 330 332 333 333 334 334 335 337 341 344 346 348 349 351 352 353
295 300 305 305 307 310 304 300 302 302 304 310 319 323 323 327 330 331 332 334 336 337 334 337 344 345 346 347 346 351 351 352
302 306 307 305 306 308 304 307 298 303 309 317 321 324 327 327 329 330 331 333 336 338 339 338 338 344 348 345 345 351 349 351
302 306 305 304 304 308 310 310 311 311 312 321 324 328 327 327 328 329 331 333 336 337 337 335 336 340 342 347 346 347 351 351
297 303 302 298 302 304 309 312 312 309 315 319 320 323 326 327 328 330 331 333 336 336 335 335 335 338 338 341 345 346 347 348
299 301 291 303 310 310 308 310 315 317 317 320 320 322 324 328 328 328 328 330 333 336 335 337 340 341 338 339 340 340 339 340
298 297 299 304 307 306 305 306 315 317 319 321 322 322 321 324 325 325 325 325 326 328 330 333 336 343 342 341 341 341 338 341
298 294 291 303 309 312 311 303 315 321 320 322 323 314 317 322 323 323 324 324 323 324 325 326 327 332 337 338 339 339 336 337
299 298 300 306 310 313 300 304 318 323 322 324 322 324 323 322 321 322 323 322 322 322 320 322 325 329 329 331 329 333 333 334
299 298 294 309 310 306 311 317 321 324 323 322 320 321 322 321 321 321 321 321 322 321 319 320 321 321 320 321 325 328 328 329
304 304 309 312 312 316 317 319 321 324 323 321 321 322 322 321 323 324 323 321 320 319 317 317 318 319 314 315 319 321 322 321
305 308 311 313 316 316 321 321 325 327 325 325 322 322 323 322 323 323 323 321 322 320 315 314 314 314 314 315 316 316 314 315
306 310 313 314 316 316 320 324 323 325 326 325 324 322 323 323 324 323 322 320 319 319 317 316 316 315 315 315 316 314 314 311
305 315 316 316 317 320 323 324 324 323 324 326 325 323 323 321 322 320 319 319 319 317 316 315 314 314 316 316 317 314 312 312
313 316 314 318 318 318 322 325 325 325 326 326 326 324 324 322 322 318 322 322 320 318 316 315 314 314 318 321 319 318 317 317

GFSFLT2_sfc_thetae_120.txt.gz
Theta_e
315 316 316 310 308 312 305 306 303 306 313 320 324 324 327 328 328 329 333 337 339 340 344 346 348 349 351 351 353 353 353 356
313 319 319 317 318 306 306 298 297 302 307 309 316 321 325 327 327 328 333 336 340 341 344 347 348 350 351 352 352 353 353 355
310 310 308 312 311 312 310 308 299 298 304 316 319 323 325 327 330 330 333 334 339 341 345 347 349 350 352 352 352 353 354 355
305 311 312 310 311 311 305 303 308 306 304 322 324 325 327 328 328 331 335 336 335 342 345 346 347 348 351 352 352 353 355 356
301 307 311 308 311 313 311 311 300 301 303 321 325 326 328 329 332 331 334 337 337 338 344 344 342 348 350 352 353 354 356 356
297 301 305 307 309 312 311 305 303 304 308 312 322 325 328 330 333 333 333 335 335 334 338 341 342 343 351 352 354 356 356 356
304 305 308 307 308 309 309 309 305 306 308 315 322 324 331 331 333 333 334 335 337 334 334 338 339 344 349 352 355 355 354 354
303 305 307 305 307 308 310 311 312 313 312 326 327 328 332 330 331 331 333 334 339 338 339 336 339 342 345 351 354 355 351 349
300 304 305 301 305 307 309 312 312 308 317 324 325 324 326 332 333 333 334 337 337 341 341 341 339 340 341 348 352 352 346 347
301 301 294 305 312 311 309 311 314 315 319 324 322 323 326 332 331 331 333 336 339 341 343 337 339 344 343 343 347 351 346 344
300 298 301 305 309 309 308 307 312 314 321 323 322 327 322 325 327 326 328 329 330 332 337 340 339 340 339 338 339 339 340 343
301 296 293 306 313 315 314 304 316 319 324 325 327 321 320 322 324 324 324 325 327 328 331 333 334 342 341 337 338 340 340 344
300 299 301 310 314 316 303 308 321 325 328 327 323 324 323 325 324 324 324 324 325 323 323 326 330 338 340 342 340 340 341 338
304 300 296 313 313 308 316 323 325 328 329 322 324 327 326 324 323 323 323 324 324 321 321 322 324 325 323 324 330 334 334 333
306 306 315 319 317 320 321 323 327 327 328 329 326 326 326 324 325 326 325 323 321 319 317 317 319 319 318 319 324 325 324 322
309 314 315 318 320 321 325 326 330 328 329 327 324 324 323 324 325 325 326 325 323 323 319 315 316 316 316 317 318 317 316 316
309 314 318 319 323 324 326 330 330 329 327 326 324 324 326 326 327 327 325 325 326 323 321 319 319 319 319 319 319 314 313 311
307 314 319 320 324 327 327 327 328 328 327 327 326 325 325 324 324 323 321 322 321 320 318 318 318 319 321 321 321 318 316 315
315 320 320 322 324 325 327 328 327 329 328 326 326 325 324 324 325 321 324 322 320 319 320 321 322 323 324 326 326 323 320 319

GFSFLT2_sfc_thetae_123.txt.gz
Theta_e
313 313 312 310 307 312 306 307 303 309 313 319 322 320 326 328 332 331 335 336 337 338 341 347 347 349 351 352 354 354 355 357
311 314 316 312 318 306 306 299 298 304 306 312 316 316 322 326 330 333 335 338 338 338 339 344 347 351 351 353 353 354 353 354
311 310 309 311 309 310 310 309 301 300 306 313 317 320 325 326 329 331 332 334 339 338 341 345 348 349 352 352 354 353 353 358
307 312 314 314 312 312 305 304 305 304 304 319 322 320 326 326 329 332 336 336 339 341 341 343 348 349 351 353 352 353 356 361
303 307 312 308 310 310 312 311 307 304 308 320 324 320 325 329 335 333 336 337 338 341 343 343 349 350 350 352 354 353 357 354
297 302 307 306 309 311 309 305 306 307 308 313 315 323 323 327 334 333 336 337 336 337 339 348 351 354 355 353 354 356 354 354
305 305 305 305 308 304 302 310 305 308 309 315 312 322 328 330 333 334 332 333 335 336 335 341 348 351 352 356 357 356 356 355
304 306 305 303 307 307 308 310 309 312 309 324 330 332 333 331 332 332 334 336 338 339 339 336 343 347 349 347 357 359 358 357
301 306 305 302 305 306 309 311 309 306 315 322 326 327 328 331 334 331 336 336 339 342 336 338 339 345 348 349 351 354 355 356
301 304 295 306 309 308 309 310 310 312 316 326 327 326 324 326 329 330 332 337 333 339 343 341 341 342 344 345 345 348 353 353
301 301 304 306 309 309 309 308 313 314 316 327 329 325 320 324 325 324 325 328 329 334 341 339 339 340 338 339 340 341 345 348
303 298 292 306 307 310 311 304 316 317 316 321 327 320 319 323 327 326 324 325 326 328 334 338 340 340 336 335 337 336 338 341
302 300 304 312 315 317 303 307 320 320 320 328 323 325 325 327 326 325 325 324 324 323 324 326 331 341 339 339 337 339 340 338
305 301 299 316 314 307 317 321 323 327 329 327 328 328 326 326 326 326 325 324 323 320 319 321 325 327 326 328 333 337 335 336
308 307 318 320 318 322 323 324 326 329 330 330 328 327 328 327 327 326 323 322 323 318 316 317 319 321 318 321 325 326 326 325
310 314 316 319 322 322 325 327 332 332 332 329 328 328 328 329 327 326 325 324 324 320 317 316 317 318 318 320 321 319 319 320
311 313 317 320 323 326 328 330 330 332 330 329 329 328 328 327 326 325 327 325 325 324 320 320 321 321 319 318 318 314 314 316
307 315 320 321 327 330 328 327 328 328 328 329 330 328 328 325 325 325 326 325 322 320 318 319 321 320 324 324 324 320 316 315
316 319 323 325 327 329 328 328 327 328 328 326 327 325 325 323 322 319 321 321 321 321 322 323 324 324 326 327 328 326 320 324

GFSFLT2_sfc_thetae_126.txt.gz
Theta_e
311 312 310 307 306 310 303 306 302 306 314 320 321 319 320 327 333 334 337 338 335 339 340 341 348 349 350 354 355 357 355 358
311 313 313 309 314 306 305 298 296 303 307 308 315 318 325 326 329 332 338 340 336 341 337 344 348 347 352 355 354 356 355 356
311 308 307 309 307 309 308 307 300 300 304 317 317 320 325 327 324 332 334 338 341 340 339 340 344 350 352 353 355 354 355 357
306 313 315 312 309 311 303 302 306 305 305 320 321 321 328 322 326 333 333 332 339 338 339 340 343 347 351 353 354 354 355 359
300 306 311 309 310 310 310 309 305 303 304 320 321 322 324 327 329 328 333 329 338 339 337 340 340 347 350 353 354 354 356 356
297 301 305 304 308 310 309 303 305 305 307 315 319 318 322 326 330 329 334 336 341 341 341 340 340 345 349 353 356 355 355 354
304 305 305 304 304 305 307 307 304 307 308 313 317 318 325 330 335 333 333 335 338 339 341 341 345 344 347 353 356 355 354 354
303 305 305 303 305 305 307 308 307 308 308 321 319 318 320 329 333 333 332 335 337 336 337 339 337 341 338 347 347 353 355 354
301 306 306 301 305 307 308 311 308 304 312 321 311 312 313 326 330 330 330 330 331 338 336 336 336 342 334 341 354 348 353 357
301 303 294 305 312 311 309 310 310 311 315 322 320 322 323 326 325 325 327 327 326 335 338 341 343 342 346 350 352 352 344 345
299 299 303 306 309 308 306 307 314 313 315 319 321 323 320 326 325 325 326 325 326 328 333 339 339 339 340 345 348 350 347 346
302 297 295 307 312 314 313 301 312 318 316 317 316 313 318 325 326 324 325 326 326 325 326 329 334 339 336 335 336 338 339 340
301 299 303 313 312 317 303 307 315 315 315 315 319 326 324 325 325 325 324 324 324 323 322 322 327 338 334 334 332 336 338 338
305 302 299 317 315 309 318 320 314 313 309 314 325 324 325 326 325 324 323 322 321 318 318 320 323 329 331 326 336 336 335 335
307 307 319 321 319 320 320 321 319 313 311 323 326 325 325 326 324 324 322 320 319 318 318 319 319 321 321 323 326 328 327 326
311 310 314 319 320 322 322 320 323 321 326 328 325 327 326 326 325 325 323 320 319 317 315 316 318 320 319 321 324 325 323 322
311 314 319 321 323 322 326 328 329 330 329 327 327 326 326 326 326 325 326 325 323 319 317 317 318 317 319 318 319 319 319 319
308 319 318 318 320 326 327 326 324 326 327 329 329 328 327 326 328 326 324 321 319 320 320 320 322 323 324 323 320 319 318 318
316 324 324 324 325 327 327 327 328 328 329 326 328 326 324 323 325 320 322 322 322 323 323 325 326 327 329 328 325 324 317 316